Wetterdaten: Sonntag, 28.08.2022
Datum Zeit Temp. Aussen Temp. o. S. Temp +5cm Feuchte Auss Luftdruck Regen Sonnenschein Regendauer Solar Windben Empfang
28.08.2022 00:00 20,2 C 19,4 C 15,6 C 69 % 1018,0 hPa 0,0 l/m 0 min 0 min 0 W/m 3,2 km/h (1 Bft) 95,74 %
28.08.2022 00:02 20,1 C 19,4 C 15,6 C 69 % 1018,0 hPa 0,0 l/m 0 min 0 min 0 W/m 12,9 km/h (3 Bft) 94,74 %
28.08.2022 00:04 20,1 C 18,9 C 15,6 C 69 % 1018,0 hPa 0,0 l/m 0 min 0 min 0 W/m 6,4 km/h (2 Bft) 93,48 %
28.08.2022 00:08 20,1 C 18,9 C 15,6 C 69 % 1018,1 hPa 0,0 l/m 0 min 0 min 0 W/m 12,9 km/h (3 Bft) 95,79 %
28.08.2022 00:10 20,1 C 18,9 C 15,6 C 69 % 1018,2 hPa 0,0 l/m 0 min 0 min 0 W/m 19,3 km/h (3 Bft) 95,65 %
28.08.2022 00:12 20,0 C 18,9 C 15,6 C 69 % 1018,1 hPa 0,0 l/m 0 min 0 min 0 W/m 6,4 km/h (2 Bft) 95,74 %
28.08.2022 00:14 20,0 C 18,9 C 15,6 C 70 % 1018,2 hPa 0,0 l/m 0 min 0 min 0 W/m 9,7 km/h (2 Bft) 95,74 %
28.08.2022 00:16 19,9 C 18,9 C 15,6 C 70 % 1018,2 hPa 0,0 l/m 0 min 0 min 0 W/m 3,2 km/h (1 Bft) 91,49 %
28.08.2022 00:18 19,9 C 18,9 C 15,6 C 70 % 1018,0 hPa 0,0 l/m 0 min 0 min 0 W/m 12,9 km/h (3 Bft) 95,74 %
28.08.2022 00:20 19,9 C 18,9 C 15,6 C 70 % 1018,1 hPa 0,0 l/m 0 min 0 min 0 W/m 9,7 km/h (2 Bft) 93,62 %
28.08.2022 00:28 19,8 C 18,9 C 15,6 C 70 % 1018,0 hPa 0,0 l/m 0 min 0 min 0 W/m 6,4 km/h (2 Bft) 95,12 %
28.08.2022 00:30 19,8 C 18,9 C 15,0 C 70 % 1018,1 hPa 0,0 l/m 0 min 0 min 0 W/m 12,9 km/h (3 Bft) 97,83 %
28.08.2022 00:32 19,7 C 18,9 C 15,0 C 70 % 1018,0 hPa 0,0 l/m 0 min 0 min 0 W/m 9,7 km/h (2 Bft) 95,74 %
28.08.2022 00:34 19,7 C 18,9 C 15,0 C 70 % 1018,1 hPa 0,0 l/m 0 min 0 min 0 W/m 12,9 km/h (3 Bft) 97,87 %
28.08.2022 00:36 19,7 C 18,9 C 15,0 C 70 % 1018,1 hPa 0,0 l/m 0 min 0 min 0 W/m 9,7 km/h (2 Bft) 95,74 %
28.08.2022 00:38 19,7 C 18,9 C 15,0 C 70 % 1018,2 hPa 0,0 l/m 0 min 0 min 0 W/m 6,4 km/h (2 Bft) 97,87 %
28.08.2022 00:40 19,6 C 18,9 C 15,0 C 70 % 1018,1 hPa 0,0 l/m 0 min 0 min 0 W/m 9,7 km/h (2 Bft) 97,87 %
28.08.2022 00:42 19,6 C 18,9 C 15,0 C 70 % 1018,1 hPa 0,0 l/m 0 min 0 min 0 W/m 12,9 km/h (3 Bft) 95,65 %
28.08.2022 00:44 19,6 C 18,9 C 15,0 C 70 % 1018,2 hPa 0,0 l/m 0 min 0 min 0 W/m 6,4 km/h (2 Bft) 97,87 %
28.08.2022 00:46 19,6 C 18,9 C 15,0 C 70 % 1018,2 hPa 0,0 l/m 0 min 0 min 0 W/m 16,1 km/h (3 Bft) 95,74 %
28.08.2022 00:48 19,6 C 18,9 C 15,0 C 70 % 1018,2 hPa 0,0 l/m 0 min 0 min 0 W/m 9,7 km/h (2 Bft) 100,00 %
28.08.2022 00:50 19,5 C 18,9 C 15,0 C 70 % 1018,1 hPa 0,0 l/m 0 min 0 min 0 W/m 9,7 km/h (2 Bft) 100,00 %
28.08.2022 00:52 19,4 C 18,9 C 15,0 C 70 % 1018,2 hPa 0,0 l/m 0 min 0 min 0 W/m 9,7 km/h (2 Bft) 100,00 %
28.08.2022 00:54 19,4 C 18,3 C 15,0 C 70 % 1018,2 hPa 0,0 l/m 0 min 0 min 0 W/m 6,4 km/h (2 Bft) 97,83 %
28.08.2022 00:56 19,4 C 18,3 C 15,0 C 70 % 1018,2 hPa 0,0 l/m 0 min 0 min 0 W/m 9,7 km/h (2 Bft) 100,00 %
28.08.2022 00:58 19,3 C 18,3 C 15,0 C 70 % 1018,2 hPa 0,0 l/m 0 min 0 min 0 W/m 9,7 km/h (2 Bft) 100,00 %
28.08.2022 01:00 19,3 C 18,3 C 15,0 C 71 % 1018,2 hPa 0,0 l/m 0 min 0 min 0 W/m 6,4 km/h (2 Bft) 100,00 %
28.08.2022 01:02 19,3 C 18,3 C 15,0 C 71 % 1018,3 hPa 0,0 l/m 0 min 0 min 0 W/m 12,9 km/h (3 Bft) 97,87 %
28.08.2022 01:04 19,2 C 18,3 C 15,0 C 71 % 1018,2 hPa 0,0 l/m 0 min 0 min 0 W/m 12,9 km/h (3 Bft) 95,65 %
28.08.2022 01:06 19,2 C 18,3 C 15,0 C 70 % 1018,3 hPa 0,0 l/m 0 min 0 min 0 W/m 12,9 km/h (3 Bft) 100,00 %
28.08.2022 01:08 19,2 C 18,3 C 15,0 C 71 % 1018,2 hPa 0,0 l/m 0 min 0 min 0 W/m 6,4 km/h (2 Bft) 100,00 %
28.08.2022 01:10 19,1 C 18,3 C 15,0 C 71 % 1018,2 hPa 0,0 l/m 0 min 0 min 0 W/m 3,2 km/h (1 Bft) 100,00 %
28.08.2022 01:12 19,1 C 18,3 C 14,4 C 71 % 1018,2 hPa 0,0 l/m 0 min 0 min 0 W/m 9,7 km/h (2 Bft) 100,00 %
28.08.2022 01:14 19,1 C 18,3 C 14,4 C 71 % 1018,2 hPa 0,0 l/m 0 min 0 min 0 W/m 6,4 km/h (2 Bft) 100,00 %
28.08.2022 01:16 19,1 C 18,3 C 14,4 C 71 % 1018,2 hPa 0,0 l/m 0 min 0 min 0 W/m 9,7 km/h (2 Bft) 100,00 %
28.08.2022 01:18 19,0 C 18,3 C 14,4 C 71 % 1018,3 hPa 0,0 l/m 0 min 0 min 0 W/m 12,9 km/h (3 Bft) 100,00 %
28.08.2022 01:20 19,0 C 18,3 C 14,4 C 71 % 1018,2 hPa 0,0 l/m 0 min 0 min 0 W/m 12,9 km/h (3 Bft) 97,87 %
28.08.2022 01:22 18,9 C 18,3 C 14,4 C 71 % 1018,2 hPa 0,0 l/m 0 min 0 min 0 W/m 9,7 km/h (2 Bft) 100,00 %
28.08.2022 01:24 18,9 C 18,3 C 14,4 C 72 % 1018,2 hPa 0,0 l/m 0 min 0 min 0 W/m 16,1 km/h (3 Bft) 100,00 %
28.08.2022 01:26 18,9 C 18,3 C 14,4 C 72 % 1018,2 hPa 0,0 l/m 0 min 0 min 0 W/m 6,4 km/h (2 Bft) 100,00 %
28.08.2022 01:28 18,9 C 18,3 C 14,4 C 72 % 1018,2 hPa 0,0 l/m 0 min 0 min 0 W/m 12,9 km/h (3 Bft) 100,00 %
28.08.2022 01:30 18,8 C 18,3 C 14,4 C 72 % 1018,2 hPa 0,0 l/m 0 min 0 min 0 W/m 6,4 km/h (2 Bft) 100,00 %
28.08.2022 01:32 18,8 C 17,8 C 14,4 C 72 % 1018,2 hPa 0,0 l/m 0 min 0 min 0 W/m 12,9 km/h (3 Bft) 100,00 %
28.08.2022 01:34 18,8 C 17,8 C 14,4 C 72 % 1018,2 hPa 0,0 l/m 0 min 0 min 0 W/m 6,4 km/h (2 Bft) 100,00 %
28.08.2022 01:36 18,8 C 17,8 C 14,4 C 72 % 1018,2 hPa 0,0 l/m 0 min 0 min 0 W/m 9,7 km/h (2 Bft) 100,00 %
28.08.2022 01:38 18,8 C 17,8 C 14,4 C 72 % 1018,2 hPa 0,0 l/m 0 min 0 min 0 W/m 6,4 km/h (2 Bft) 100,00 %
28.08.2022 01:40 18,8 C 17,8 C 14,4 C 72 % 1018,2 hPa 0,0 l/m 0 min 0 min 0 W/m 19,3 km/h (3 Bft) 100,00 %
28.08.2022 01:42 18,7 C 17,8 C 14,4 C 72 % 1018,2 hPa 0,0 l/m 0 min 0 min 0 W/m 9,7 km/h (2 Bft) 100,00 %
28.08.2022 01:44 18,7 C 17,8 C 14,4 C 72 % 1018,3 hPa 0,0 l/m 0 min 0 min 0 W/m 6,4 km/h (2 Bft) 97,87 %
28.08.2022 01:46 18,7 C 17,8 C 14,4 C 72 % 1018,3 hPa 0,0 l/m 0 min 0 min 0 W/m 19,3 km/h (3 Bft) 100,00 %
28.08.2022 01:48 18,6 C 17,8 C 14,4 C 72 % 1018,3 hPa 0,0 l/m 0 min 0 min 0 W/m 16,1 km/h (3 Bft) 97,87 %
28.08.2022 01:50 18,6 C 17,8 C 14,4 C 72 % 1018,3 hPa 0,0 l/m 0 min 0 min 0 W/m 12,9 km/h (3 Bft) 100,00 %
28.08.2022 01:52 18,6 C 17,8 C 14,4 C 72 % 1018,2 hPa 0,0 l/m 0 min 0 min 0 W/m 9,7 km/h (2 Bft) 97,87 %
28.08.2022 01:54 18,6 C 17,8 C 14,4 C 72 % 1018,2 hPa 0,0 l/m 0 min 0 min 0 W/m 16,1 km/h (3 Bft) 97,83 %
28.08.2022 01:56 18,5 C 17,8 C 14,4 C 72 % 1018,3 hPa 0,0 l/m 0 min 0 min 0 W/m 9,7 km/h (2 Bft) 97,87 %
28.08.2022 01:58 18,5 C 17,8 C 14,4 C 72 % 1018,3 hPa 0,0 l/m 0 min 0 min 0 W/m 6,4 km/h (2 Bft) 97,87 %
28.08.2022 02:00 18,5 C 17,8 C 14,4 C 72 % 1018,2 hPa 0,0 l/m 0 min 0 min 0 W/m 12,9 km/h (3 Bft) 97,87 %
28.08.2022 02:02 18,4 C 17,8 C 14,4 C 72 % 1018,2 hPa 0,0 l/m 0 min 0 min 0 W/m 12,9 km/h (3 Bft) 97,87 %
28.08.2022 02:04 18,4 C 17,8 C 14,4 C 72 % 1018,2 hPa 0,0 l/m 0 min 0 min 0 W/m 9,7 km/h (2 Bft) 97,83 %
28.08.2022 02:06 18,4 C 17,8 C 13,9 C 72 % 1018,2 hPa 0,0 l/m 0 min 0 min 0 W/m 6,4 km/h (2 Bft) 95,74 %
28.08.2022 02:08 18,4 C 17,8 C 13,9 C 72 % 1018,2 hPa 0,0 l/m 0 min 0 min 0 W/m 12,9 km/h (3 Bft) 97,87 %
28.08.2022 02:10 18,4 C 17,8 C 13,9 C 72 % 1018,2 hPa 0,0 l/m 0 min 0 min 0 W/m 6,4 km/h (2 Bft) 97,87 %
28.08.2022 02:12 18,3 C 17,2 C 13,9 C 72 % 1018,2 hPa 0,0 l/m 0 min 0 min 0 W/m 12,9 km/h (3 Bft) 97,87 %
28.08.2022 02:14 18,3 C 17,2 C 13,9 C 72 % 1018,2 hPa 0,0 l/m 0 min 0 min 0 W/m 16,1 km/h (3 Bft) 95,74 %
28.08.2022 02:16 18,3 C 17,2 C 13,9 C 73 % 1018,2 hPa 0,0 l/m 0 min 0 min 0 W/m 12,9 km/h (3 Bft) 95,74 %
28.08.2022 02:18 18,3 C 17,2 C 13,9 C 72 % 1018,2 hPa 0,0 l/m 0 min 0 min 0 W/m 22,5 km/h (4 Bft) 95,65 %
28.08.2022 02:20 18,2 C 17,2 C 13,9 C 72 % 1018,2 hPa 0,0 l/m 0 min 0 min 0 W/m 16,1 km/h (3 Bft) 95,74 %
28.08.2022 02:22 18,2 C 17,2 C 13,9 C 72 % 1018,2 hPa 0,0 l/m 0 min 0 min 0 W/m 9,7 km/h (2 Bft) 95,74 %
28.08.2022 02:24 18,2 C 17,2 C 13,9 C 73 % 1018,2 hPa 0,0 l/m 0 min 0 min 0 W/m 9,7 km/h (2 Bft) 97,87 %
28.08.2022 02:26 18,2 C 17,2 C 13,9 C 73 % 1018,2 hPa 0,0 l/m 0 min 0 min 0 W/m 6,4 km/h (2 Bft) 97,87 %
28.08.2022 02:28 18,2 C 17,2 C 13,9 C 73 % 1018,3 hPa 0,0 l/m 0 min 0 min 0 W/m 6,4 km/h (2 Bft) 97,83 %
28.08.2022 02:30 18,2 C 17,2 C 13,9 C 73 % 1018,3 hPa 0,0 l/m 0 min 0 min 0 W/m 16,1 km/h (3 Bft) 97,87 %
28.08.2022 02:32 18,1 C 17,2 C 13,9 C 73 % 1018,3 hPa 0,0 l/m 0 min 0 min 0 W/m 3,2 km/h (1 Bft) 97,87 %
28.08.2022 02:34 18,1 C 17,2 C 13,9 C 73 % 1018,4 hPa 0,0 l/m 0 min 0 min 0 W/m 16,1 km/h (3 Bft) 97,87 %
28.08.2022 02:36 18,1 C 17,2 C 13,9 C 73 % 1018,3 hPa 0,0 l/m 0 min 0 min 0 W/m 9,7 km/h (2 Bft) 95,74 %
28.08.2022 02:38 18,1 C 17,2 C 13,9 C 73 % 1018,3 hPa 0,0 l/m 0 min 0 min 0 W/m 9,7 km/h (2 Bft) 97,87 %
28.08.2022 02:40 18,1 C 17,2 C 13,9 C 73 % 1018,4 hPa 0,0 l/m 0 min 0 min 0 W/m 6,4 km/h (2 Bft) 97,83 %
28.08.2022 02:42 18,1 C 17,2 C 13,9 C 73 % 1018,4 hPa 0,0 l/m 0 min 0 min 0 W/m 9,7 km/h (2 Bft) 97,87 %
28.08.2022 02:44 18,1 C 17,2 C 13,9 C 73 % 1018,3 hPa 0,0 l/m 0 min 0 min 0 W/m 16,1 km/h (3 Bft) 97,87 %
28.08.2022 02:46 18,1 C 17,2 C 13,9 C 73 % 1018,3 hPa 0,0 l/m 0 min 0 min 0 W/m 12,9 km/h (3 Bft) 97,87 %
28.08.2022 02:48 18,0 C 17,2 C 13,9 C 73 % 1018,4 hPa 0,0 l/m 0 min 0 min 0 W/m 16,1 km/h (3 Bft) 97,87 %
28.08.2022 02:50 18,0 C 17,2 C 13,9 C 73 % 1018,4 hPa 0,0 l/m 0 min 0 min 0 W/m 16,1 km/h (3 Bft) 91,49 %
28.08.2022 02:52 17,9 C 17,2 C 13,9 C 73 % 1018,4 hPa 0,0 l/m 0 min 0 min 0 W/m 12,9 km/h (3 Bft) 95,65 %
28.08.2022 02:54 17,9 C 17,2 C 13,9 C 73 % 1018,3 hPa 0,0 l/m 0 min 0 min 0 W/m 9,7 km/h (2 Bft) 97,22 %
28.08.2022 02:56 17,9 C 17,2 C 13,9 C 73 % 1018,3 hPa 0,0 l/m 0 min 0 min 0 W/m 12,9 km/h (3 Bft) 94,83 %
28.08.2022 02:58 17,9 C 17,2 C 13,3 C 74 % 1018,4 hPa 0,0 l/m 0 min 0 min 0 W/m 9,7 km/h (2 Bft) 95,74 %
28.08.2022 03:00 17,9 C 17,2 C 13,3 C 74 % 1018,4 hPa 0,0 l/m 0 min 0 min 0 W/m 19,3 km/h (3 Bft) 91,43 %
28.08.2022 03:02 17,8 C 17,2 C 13,3 C 74 % 1018,4 hPa 0,0 l/m 0 min 0 min 0 W/m 16,1 km/h (3 Bft) 96,61 %
28.08.2022 03:04 17,8 C 16,7 C 13,3 C 73 % 1018,5 hPa 0,0 l/m 0 min 0 min 0 W/m 16,1 km/h (3 Bft) 94,29 %
28.08.2022 03:06 17,8 C 16,7 C 13,3 C 73 % 1018,4 hPa 0,0 l/m 0 min 0 min 0 W/m 12,9 km/h (3 Bft) 94,55 %
28.08.2022 03:08 17,8 C 16,7 C 13,3 C 73 % 1018,4 hPa 0,0 l/m 0 min 0 min 0 W/m 25,7 km/h (4 Bft) 95,65 %
28.08.2022 03:10 17,8 C 16,7 C 13,3 C 73 % 1018,4 hPa 0,0 l/m 0 min 0 min 0 W/m 12,9 km/h (3 Bft) 97,87 %
28.08.2022 03:12 17,8 C 16,7 C 13,3 C 74 % 1018,4 hPa 0,0 l/m 0 min 0 min 0 W/m 9,7 km/h (2 Bft) 97,87 %
28.08.2022 03:14 17,7 C 16,7 C 13,3 C 74 % 1018,4 hPa 0,0 l/m 0 min 0 min 0 W/m 16,1 km/h (3 Bft) 97,87 %
28.08.2022 03:16 17,7 C 16,7 C 13,3 C 74 % 1018,4 hPa 0,0 l/m 0 min 0 min 0 W/m 22,5 km/h (4 Bft) 97,87 %
28.08.2022 03:18 17,7 C 16,7 C 13,3 C 74 % 1018,5 hPa 0,0 l/m 0 min 0 min 0 W/m 12,9 km/h (3 Bft) 97,87 %
28.08.2022 03:20 17,7 C 16,7 C 13,3 C 74 % 1018,5 hPa 0,0 l/m 0 min 0 min 0 W/m 19,3 km/h (3 Bft) 97,83 %
28.08.2022 03:22 17,7 C 16,7 C 13,3 C 74 % 1018,5 hPa 0,0 l/m 0 min 0 min 0 W/m 25,7 km/h (4 Bft) 97,87 %
28.08.2022 03:24 17,6 C 16,7 C 13,3 C 74 % 1018,5 hPa 0,0 l/m 0 min 0 min 0 W/m 22,5 km/h (4 Bft) 97,87 %
28.08.2022 03:26 17,6 C 16,7 C 13,3 C 74 % 1018,5 hPa 0,0 l/m 0 min 0 min 0 W/m 12,9 km/h (3 Bft) 95,74 %
28.08.2022 03:28 17,6 C 16,7 C 13,3 C 74 % 1018,5 hPa 0,0 l/m 0 min 0 min 0 W/m 9,7 km/h (2 Bft) 95,74 %
28.08.2022 03:30 17,6 C 16,7 C 13,3 C 74 % 1018,4 hPa 0,0 l/m 0 min 0 min 0 W/m 12,9 km/h (3 Bft) 97,87 %
28.08.2022 03:32 17,6 C 16,7 C 13,3 C 74 % 1018,5 hPa 0,0 l/m 0 min 0 min 0 W/m 12,9 km/h (3 Bft) 97,83 %
28.08.2022 03:34 17,6 C 16,7 C 13,3 C 75 % 1018,5 hPa 0,0 l/m 0 min 0 min 0 W/m 6,4 km/h (2 Bft) 97,87 %
28.08.2022 03:36 17,5 C 16,7 C 13,3 C 75 % 1018,4 hPa 0,0 l/m 0 min 0 min 0 W/m 12,9 km/h (3 Bft) 95,74 %
28.08.2022 03:38 17,5 C 16,7 C 13,3 C 75 % 1018,4 hPa 0,0 l/m 0 min 0 min 0 W/m 19,3 km/h (3 Bft) 100,00 %
28.08.2022 03:40 17,5 C 16,7 C 13,3 C 75 % 1018,4 hPa 0,0 l/m 0 min 0 min 0 W/m 16,1 km/h (3 Bft) 97,87 %
28.08.2022 03:42 17,4 C 16,7 C 13,3 C 75 % 1018,4 hPa 0,0 l/m 0 min 0 min 0 W/m 16,1 km/h (3 Bft) 100,00 %
28.08.2022 03:44 17,4 C 16,7 C 13,3 C 75 % 1018,3 hPa 0,0 l/m 0 min 0 min 0 W/m 12,9 km/h (3 Bft) 95,65 %
28.08.2022 03:46 17,4 C 16,7 C 13,3 C 75 % 1018,3 hPa 0,0 l/m 0 min 0 min 0 W/m 19,3 km/h (3 Bft) 97,87 %
28.08.2022 03:48 17,4 C 16,7 C 13,3 C 75 % 1018,2 hPa 0,0 l/m 0 min 0 min 0 W/m 16,1 km/h (3 Bft) 97,87 %
28.08.2022 03:50 17,3 C 16,7 C 13,3 C 75 % 1018,2 hPa 0,0 l/m 0 min 0 min 0 W/m 12,9 km/h (3 Bft) 97,87 %
28.08.2022 03:52 17,3 C 16,7 C 12,8 C 75 % 1018,3 hPa 0,0 l/m 0 min 0 min 0 W/m 22,5 km/h (4 Bft) 97,87 %
28.08.2022 03:54 17,3 C 16,7 C 12,8 C 75 % 1018,2 hPa 0,0 l/m 0 min 0 min 0 W/m 22,5 km/h (4 Bft) 95,65 %
28.08.2022 03:56 17,3 C 16,7 C 12,8 C 76 % 1018,2 hPa 0,0 l/m 0 min 0 min 0 W/m 12,9 km/h (3 Bft) 95,74 %
28.08.2022 03:58 17,3 C 16,7 C 12,8 C 76 % 1018,2 hPa 0,0 l/m 0 min 0 min 0 W/m 16,1 km/h (3 Bft) 97,87 %
28.08.2022 04:00 17,2 C 16,1 C 12,8 C 76 % 1018,2 hPa 0,0 l/m 0 min 0 min 0 W/m 19,3 km/h (3 Bft) 97,87 %
28.08.2022 04:02 17,2 C 16,1 C 12,8 C 76 % 1018,2 hPa 0,0 l/m 0 min 0 min 0 W/m 16,1 km/h (3 Bft) 97,92 %
28.08.2022 04:04 17,2 C 16,1 C 12,8 C 76 % 1018,2 hPa 0,0 l/m 0 min 0 min 0 W/m 19,3 km/h (3 Bft) 97,87 %
28.08.2022 04:06 17,1 C 16,1 C 12,8 C 76 % 1018,3 hPa 0,0 l/m 0 min 0 min 0 W/m 12,9 km/h (3 Bft) 97,83 %
28.08.2022 04:08 17,1 C 16,1 C 12,8 C 76 % 1018,3 hPa 0,0 l/m 0 min 0 min 0 W/m 16,1 km/h (3 Bft) 97,87 %
28.08.2022 04:10 17,1 C 16,1 C 12,8 C 76 % 1018,3 hPa 0,0 l/m 0 min 0 min 0 W/m 12,9 km/h (3 Bft) 97,87 %
28.08.2022 04:12 17,1 C 16,1 C 12,8 C 76 % 1018,3 hPa 0,0 l/m 0 min 0 min 0 W/m 12,9 km/h (3 Bft) 97,87 %
28.08.2022 04:14 17,1 C 16,1 C 12,8 C 76 % 1018,4 hPa 0,0 l/m 0 min 0 min 0 W/m 9,7 km/h (2 Bft) 97,87 %
28.08.2022 04:16 17,1 C 16,1 C 12,8 C 76 % 1018,5 hPa 0,0 l/m 0 min 0 min 0 W/m 6,4 km/h (2 Bft) 100,00 %
28.08.2022 04:18 17,1 C 16,1 C 12,8 C 76 % 1018,5 hPa 0,0 l/m 0 min 0 min 0 W/m 12,9 km/h (3 Bft) 100,00 %
28.08.2022 04:20 17,1 C 16,1 C 12,8 C 76 % 1018,6 hPa 0,0 l/m 0 min 0 min 0 W/m 19,3 km/h (3 Bft) 100,00 %
28.08.2022 04:22 17,1 C 16,1 C 12,8 C 76 % 1018,6 hPa 0,0 l/m 0 min 0 min 0 W/m 9,7 km/h (2 Bft) 100,00 %
28.08.2022 04:24 17,1 C 16,1 C 12,8 C 76 % 1018,7 hPa 0,0 l/m 0 min 0 min 0 W/m 6,4 km/h (2 Bft) 100,00 %
28.08.2022 04:26 17,0 C 16,1 C 12,8 C 76 % 1018,7 hPa 0,0 l/m 0 min 0 min 0 W/m 6,4 km/h (2 Bft) 97,87 %
28.08.2022 04:28 17,0 C 16,1 C 12,8 C 76 % 1018,8 hPa 0,0 l/m 0 min 0 min 0 W/m 16,1 km/h (3 Bft) 100,00 %
28.08.2022 04:30 17,0 C 16,1 C 12,8 C 77 % 1018,8 hPa 0,0 l/m 0 min 0 min 0 W/m 3,2 km/h (1 Bft) 100,00 %
28.08.2022 04:32 17,0 C 16,1 C 12,8 C 77 % 1018,8 hPa 0,0 l/m 0 min 0 min 0 W/m 6,4 km/h (2 Bft) 97,87 %
28.08.2022 04:34 17,0 C 16,1 C 12,8 C 77 % 1018,8 hPa 0,0 l/m 0 min 0 min 0 W/m 9,7 km/h (2 Bft) 100,00 %
28.08.2022 04:36 16,9 C 16,1 C 12,8 C 77 % 1018,9 hPa 0,0 l/m 0 min 0 min 0 W/m 12,9 km/h (3 Bft) 100,00 %
28.08.2022 04:38 16,9 C 16,1 C 12,8 C 77 % 1018,8 hPa 0,0 l/m 0 min 0 min 0 W/m 12,9 km/h (3 Bft) 100,00 %
28.08.2022 04:40 16,9 C 16,1 C 12,8 C 77 % 1018,9 hPa 0,0 l/m 0 min 0 min 0 W/m 12,9 km/h (3 Bft) 100,00 %
28.08.2022 04:42 16,9 C 16,1 C 12,8 C 77 % 1018,9 hPa 0,0 l/m 0 min 0 min 0 W/m 3,2 km/h (1 Bft) 97,83 %
28.08.2022 04:44 16,9 C 16,1 C 12,8 C 77 % 1018,9 hPa 0,0 l/m 0 min 0 min 0 W/m 6,4 km/h (2 Bft) 100,00 %
28.08.2022 04:46 16,9 C 16,1 C 12,8 C 77 % 1018,9 hPa 0,0 l/m 0 min 0 min 0 W/m 3,2 km/h (1 Bft) 97,87 %
28.08.2022 04:48 16,9 C 16,1 C 12,8 C 77 % 1018,9 hPa 0,0 l/m 0 min 0 min 0 W/m 3,2 km/h (1 Bft) 100,00 %
28.08.2022 04:50 16,9 C 16,1 C 12,8 C 77 % 1019,0 hPa 0,0 l/m 0 min 0 min 0 W/m 6,4 km/h (2 Bft) 97,87 %
28.08.2022 04:52 16,9 C 16,1 C 12,8 C 78 % 1019,0 hPa 0,0 l/m 0 min 0 min 0 W/m 3,2 km/h (1 Bft) 97,87 %
28.08.2022 04:54 16,9 C 16,1 C 12,8 C 78 % 1018,9 hPa 0,0 l/m 0 min 0 min 0 W/m 3,2 km/h (1 Bft) 97,83 %
28.08.2022 04:56 16,9 C 16,1 C 12,8 C 78 % 1018,9 hPa 0,0 l/m 0 min 0 min 0 W/m 3,2 km/h (1 Bft) 100,00 %
28.08.2022 04:58 16,9 C 16,1 C 12,8 C 78 % 1018,9 hPa 0,0 l/m 0 min 0 min 0 W/m 3,2 km/h (1 Bft) 100,00 %
28.08.2022 05:00 16,8 C 16,1 C 12,8 C 78 % 1018,9 hPa 0,0 l/m 0 min 0 min 0 W/m 3,2 km/h (1 Bft) 95,74 %
28.08.2022 05:02 16,8 C 16,1 C 12,8 C 78 % 1019,0 hPa 0,0 l/m 0 min 0 min 0 W/m 3,2 km/h (1 Bft) 100,00 %
28.08.2022 05:04 16,8 C 16,1 C 12,8 C 78 % 1018,9 hPa 0,0 l/m 0 min 0 min 0 W/m 3,2 km/h (1 Bft) 100,00 %
28.08.2022 05:06 16,8 C 15,6 C 12,8 C 78 % 1018,9 hPa 0,0 l/m 0 min 0 min 0 W/m 3,2 km/h (1 Bft) 100,00 %
28.08.2022 05:08 16,8 C 15,6 C 12,8 C 78 % 1018,9 hPa 0,0 l/m 0 min 0 min 0 W/m 6,4 km/h (2 Bft) 100,00 %
28.08.2022 05:10 16,7 C 15,6 C 12,2 C 78 % 1019,0 hPa 0,0 l/m 0 min 0 min 0 W/m 9,7 km/h (2 Bft) 97,87 %
28.08.2022 05:12 16,7 C 15,6 C 12,2 C 78 % 1019,0 hPa 0,0 l/m 0 min 0 min 0 W/m 9,7 km/h (2 Bft) 97,87 %
28.08.2022 05:14 16,6 C 15,6 C 12,2 C 78 % 1019,0 hPa 0,0 l/m 0 min 0 min 0 W/m 9,7 km/h (2 Bft) 97,87 %
28.08.2022 05:16 16,6 C 15,6 C 12,2 C 78 % 1019,0 hPa 0,0 l/m 0 min 0 min 0 W/m 6,4 km/h (2 Bft) 97,87 %
28.08.2022 05:18 16,6 C 15,6 C 12,2 C 78 % 1019,0 hPa 0,0 l/m 0 min 0 min 0 W/m 6,4 km/h (2 Bft) 97,83 %
28.08.2022 05:20 16,5 C 15,6 C 12,2 C 78 % 1019,0 hPa 0,0 l/m 0 min 0 min 0 W/m 6,4 km/h (2 Bft) 97,87 %
28.08.2022 05:22 16,4 C 15,6 C 12,2 C 78 % 1019,1 hPa 0,0 l/m 0 min 0 min 0 W/m 6,4 km/h (2 Bft) 97,87 %
28.08.2022 05:24 16,4 C 15,6 C 12,2 C 79 % 1019,1 hPa 0,0 l/m 0 min 0 min 0 W/m 9,7 km/h (2 Bft) 95,74 %
28.08.2022 05:26 16,4 C 15,6 C 12,2 C 79 % 1019,1 hPa 0,0 l/m 0 min 0 min 0 W/m 3,2 km/h (1 Bft) 97,87 %
28.08.2022 05:28 16,3 C 15,6 C 12,2 C 79 % 1019,2 hPa 0,0 l/m 0 min 0 min 0 W/m 6,4 km/h (2 Bft) 97,87 %
28.08.2022 05:30 16,3 C 15,6 C 12,2 C 79 % 1019,1 hPa 0,0 l/m 0 min 0 min 0 W/m 6,4 km/h (2 Bft) 95,65 %
28.08.2022 05:32 16,3 C 15,6 C 12,2 C 79 % 1019,1 hPa 0,0 l/m 0 min 0 min 0 W/m 3,2 km/h (1 Bft) 97,87 %
28.08.2022 05:34 16,3 C 15,6 C 12,2 C 79 % 1019,1 hPa 0,0 l/m 0 min 0 min 0 W/m 3,2 km/h (1 Bft) 97,87 %
28.08.2022 05:36 16,2 C 15,6 C 12,2 C 79 % 1019,1 hPa 0,0 l/m 0 min 0 min 0 W/m 9,7 km/h (2 Bft) 95,74 %
28.08.2022 05:38 16,2 C 15,6 C 12,2 C 79 % 1019,1 hPa 0,0 l/m 0 min 0 min 0 W/m 6,4 km/h (2 Bft) 95,74 %
28.08.2022 05:40 16,2 C 15,6 C 12,2 C 79 % 1019,1 hPa 0,0 l/m 0 min 0 min 0 W/m 6,4 km/h (2 Bft) 95,74 %
28.08.2022 05:42 16,2 C 15,6 C 12,2 C 80 % 1019,1 hPa 0,0 l/m 0 min 0 min 0 W/m 12,9 km/h (3 Bft) 95,65 %
28.08.2022 05:44 16,2 C 15,6 C 12,2 C 80 % 1019,1 hPa 0,0 l/m 0 min 0 min 0 W/m 9,7 km/h (2 Bft) 95,74 %
28.08.2022 05:45 16,2 C 15,6 C 12,2 C 80 % 1019,2 hPa 0,0 l/m 0 min 0 min 0 W/m 12,9 km/h (3 Bft) 96,49 %
28.08.2022 05:50 16,1 C 15,6 C 12,2 C 80 % 1019,2 hPa 0,0 l/m 0 min 0 min 0 W/m 3,2 km/h (1 Bft) 100,00 %
28.08.2022 05:52 16,1 C 15,0 C 12,2 C 80 % 1019,3 hPa 0,0 l/m 0 min 0 min 0 W/m 9,7 km/h (2 Bft) 95,74 %
28.08.2022 05:54 16,1 C 15,0 C 12,2 C 80 % 1019,2 hPa 0,0 l/m 0 min 0 min 0 W/m 6,4 km/h (2 Bft) 100,00 %
28.08.2022 05:56 16,1 C 15,6 C 12,2 C 80 % 1019,3 hPa 0,0 l/m 0 min 0 min 0 W/m 3,2 km/h (1 Bft) 95,65 %
28.08.2022 05:58 16,1 C 15,6 C 11,7 C 80 % 1019,3 hPa 0,0 l/m 0 min 0 min 0 W/m 6,4 km/h (2 Bft) 97,87 %
28.08.2022 06:00 16,1 C 15,6 C 11,7 C 80 % 1019,3 hPa 0,0 l/m 0 min 0 min 0 W/m 3,2 km/h (1 Bft) 94,29 %
28.08.2022 06:02 16,1 C 15,6 C 11,7 C 80 % 1019,3 hPa 0,0 l/m 0 min 0 min 0 W/m 6,4 km/h (2 Bft) 93,62 %
28.08.2022 06:04 16,1 C 15,0 C 11,7 C 80 % 1019,3 hPa 0,0 l/m 0 min 0 min 0 W/m 6,4 km/h (2 Bft) 91,49 %
28.08.2022 06:07 16,0 C 15,0 C 11,7 C 81 % 1019,4 hPa 0,0 l/m 0 min 0 min 0 W/m 6,4 km/h (2 Bft) 91,49 %
28.08.2022 06:08 16,0 C 15,6 C 11,7 C 81 % 1019,4 hPa 0,0 l/m 0 min 0 min 0 W/m 6,4 km/h (2 Bft) 96,04 %
28.08.2022 06:12 16,0 C 15,0 C 11,7 C 81 % 1019,3 hPa 0,0 l/m 0 min 0 min 0 W/m 3,2 km/h (1 Bft) 100,00 %
28.08.2022 06:14 16,0 C 15,0 C 11,7 C 81 % 1019,3 hPa 0,0 l/m 0 min 0 min 0 W/m 3,2 km/h (1 Bft) 98,00 %
28.08.2022 06:16 16,0 C 15,0 C 11,7 C 81 % 1019,4 hPa 0,0 l/m 0 min 0 min 0 W/m 6,4 km/h (2 Bft) 97,83 %
28.08.2022 06:18 16,0 C 15,0 C 11,7 C 81 % 1019,4 hPa 0,0 l/m 0 min 0 min 0 W/m 6,4 km/h (2 Bft) 97,87 %
28.08.2022 06:20 15,9 C 15,0 C 11,7 C 81 % 1019,3 hPa 0,0 l/m 0 min 0 min 0 W/m 3,2 km/h (1 Bft) 95,74 %
28.08.2022 06:22 15,9 C 15,0 C 11,7 C 81 % 1019,4 hPa 0,0 l/m 0 min 0 min 0 W/m 6,4 km/h (2 Bft) 97,87 %
28.08.2022 06:24 15,9 C 15,0 C 11,7 C 81 % 1019,4 hPa 0,0 l/m 0 min 0 min 0 W/m 6,4 km/h (2 Bft) 97,87 %
28.08.2022 06:26 15,9 C 15,0 C 11,7 C 81 % 1019,4 hPa 0,0 l/m 0 min 0 min 0 W/m 6,4 km/h (2 Bft) 97,87 %
28.08.2022 06:28 15,9 C 15,0 C 11,7 C 81 % 1019,4 hPa 0,0 l/m 0 min 0 min 0 W/m 12,9 km/h (3 Bft) 97,87 %
28.08.2022 06:30 15,9 C 15,0 C 11,7 C 81 % 1019,5 hPa 0,0 l/m 0 min 0 min 0 W/m 3,2 km/h (1 Bft) 97,83 %
28.08.2022 06:32 15,9 C 15,0 C 11,7 C 81 % 1019,5 hPa 0,0 l/m 0 min 0 min 0 W/m 3,2 km/h (1 Bft) 97,87 %
28.08.2022 06:34 15,9 C 15,0 C 11,7 C 81 % 1019,5 hPa 0,0 l/m 0 min 0 min 0 W/m 3,2 km/h (1 Bft) 97,87 %
28.08.2022 06:36 15,9 C 15,0 C 11,7 C 81 % 1019,5 hPa 0,0 l/m 0 min 0 min 0 W/m 6,4 km/h (2 Bft) 97,87 %
28.08.2022 06:38 15,9 C 15,0 C 11,7 C 81 % 1019,5 hPa 0,0 l/m 0 min 0 min 0 W/m 6,4 km/h (2 Bft) 100,00 %
28.08.2022 06:40 15,9 C 15,0 C 11,7 C 81 % 1019,5 hPa 0,0 l/m 0 min 0 min 0 W/m 3,2 km/h (1 Bft) 100,00 %
28.08.2022 06:42 15,9 C 15,0 C 11,7 C 81 % 1019,5 hPa 0,0 l/m 0 min 0 min 0 W/m 3,2 km/h (1 Bft) 97,87 %
28.08.2022 06:44 15,9 C 15,0 C 11,7 C 81 % 1019,6 hPa 0,0 l/m 0 min 0 min 0 W/m 6,4 km/h (2 Bft) 97,87 %
28.08.2022 06:46 15,9 C 15,0 C 11,7 C 81 % 1019,6 hPa 0,0 l/m 0 min 0 min 0 W/m 6,4 km/h (2 Bft) 97,87 %
28.08.2022 06:48 15,9 C 15,0 C 11,7 C 81 % 1019,6 hPa 0,0 l/m 0 min 0 min 0 W/m 9,7 km/h (2 Bft) 100,00 %
28.08.2022 06:50 15,9 C 15,0 C 11,7 C 81 % 1019,6 hPa 0,0 l/m 0 min 0 min 3 W/m 6,4 km/h (2 Bft) 100,00 %
28.08.2022 06:52 15,9 C 15,0 C 11,7 C 81 % 1019,6 hPa 0,0 l/m 0 min 0 min 5 W/m 6,4 km/h (2 Bft) 100,00 %
28.08.2022 06:54 15,9 C 15,0 C 11,7 C 81 % 1019,6 hPa 0,0 l/m 0 min 0 min 5 W/m 6,4 km/h (2 Bft) 97,87 %
28.08.2022 06:56 15,9 C 15,0 C 11,7 C 81 % 1019,5 hPa 0,0 l/m 0 min 0 min 7 W/m 3,2 km/h (1 Bft) 100,00 %
28.08.2022 06:58 15,9 C 15,0 C 11,7 C 81 % 1019,6 hPa 0,0 l/m 0 min 0 min 8 W/m 6,4 km/h (2 Bft) 100,00 %
28.08.2022 07:00 15,9 C 15,0 C 11,7 C 81 % 1019,6 hPa 0,0 l/m 0 min 0 min 9 W/m 3,2 km/h (1 Bft) 100,00 %
28.08.2022 07:02 15,9 C 15,0 C 11,7 C 81 % 1019,6 hPa 0,0 l/m 0 min 0 min 11 W/m 6,4 km/h (2 Bft) 100,00 %
28.08.2022 07:04 15,9 C 15,0 C 11,7 C 81 % 1019,6 hPa 0,0 l/m 0 min 0 min 12 W/m 3,2 km/h (1 Bft) 100,00 %
28.08.2022 07:06 15,9 C 15,6 C 11,7 C 81 % 1019,6 hPa 0,0 l/m 0 min 0 min 12 W/m 6,4 km/h (2 Bft) 100,00 %
28.08.2022 07:08 15,9 C 15,6 C 11,7 C 81 % 1019,6 hPa 0,0 l/m 0 min 0 min 14 W/m 12,9 km/h (3 Bft) 100,00 %
28.08.2022 07:10 15,9 C 15,6 C 11,7 C 81 % 1019,7 hPa 0,0 l/m 0 min 0 min 16 W/m 3,2 km/h (1 Bft) 97,87 %
28.08.2022 07:12 15,9 C 15,6 C 11,7 C 81 % 1019,7 hPa 0,0 l/m 0 min 0 min 16 W/m 3,2 km/h (1 Bft) 100,00 %
28.08.2022 07:14 15,9 C 15,6 C 12,2 C 81 % 1019,7 hPa 0,0 l/m 0 min 0 min 18 W/m 3,2 km/h (1 Bft) 100,00 %
28.08.2022 07:16 15,9 C 15,6 C 11,7 C 81 % 1019,7 hPa 0,0 l/m 0 min 0 min 18 W/m 3,2 km/h (1 Bft) 100,00 %
28.08.2022 07:18 15,9 C 15,6 C 12,2 C 81 % 1019,8 hPa 0,0 l/m 0 min 0 min 19 W/m 6,4 km/h (2 Bft) 100,00 %
28.08.2022 07:20 15,9 C 15,6 C 12,2 C 81 % 1019,8 hPa 0,0 l/m 0 min 0 min 21 W/m 3,2 km/h (1 Bft) 100,00 %
28.08.2022 07:22 16,0 C 15,6 C 12,2 C 81 % 1019,8 hPa 0,0 l/m 0 min 0 min 22 W/m 3,2 km/h (1 Bft) 100,00 %
28.08.2022 07:24 16,0 C 15,6 C 12,2 C 81 % 1019,8 hPa 0,0 l/m 0 min 0 min 24 W/m 3,2 km/h (1 Bft) 100,00 %
28.08.2022 07:26 16,0 C 15,6 C 12,2 C 82 % 1019,8 hPa 0,0 l/m 0 min 0 min 25 W/m 3,2 km/h (1 Bft) 97,87 %
28.08.2022 07:28 16,0 C 15,6 C 12,2 C 81 % 1019,9 hPa 0,0 l/m 0 min 0 min 26 W/m 6,4 km/h (2 Bft) 97,83 %
28.08.2022 07:30 16,0 C 15,6 C 12,2 C 81 % 1019,8 hPa 0,0 l/m 0 min 0 min 28 W/m 6,4 km/h (2 Bft) 46,34 %
28.08.2022 07:32 16,0 C 15,6 C 12,2 C 81 % 1019,8 hPa 0,0 l/m 0 min 0 min 29 W/m 3,2 km/h (1 Bft) 100,00 %
28.08.2022 07:34 16,0 C 15,6 C 12,2 C 81 % 1019,9 hPa 0,0 l/m 0 min 0 min 32 W/m 6,4 km/h (2 Bft) 95,74 %
28.08.2022 07:36 16,0 C 15,6 C 12,2 C 81 % 1019,9 hPa 0,0 l/m 0 min 0 min 33 W/m 6,4 km/h (2 Bft) 97,87 %
28.08.2022 07:38 16,0 C 15,6 C 12,2 C 81 % 1019,9 hPa 0,0 l/m 0 min 0 min 34 W/m 6,4 km/h (2 Bft) 95,74 %
28.08.2022 07:40 16,0 C 15,6 C 12,2 C 81 % 1019,9 hPa 0,0 l/m 0 min 0 min 37 W/m 9,7 km/h (2 Bft) 97,83 %
28.08.2022 07:42 16,0 C 15,6 C 12,2 C 81 % 1019,9 hPa 0,0 l/m 0 min 0 min 40 W/m 3,2 km/h (1 Bft) 97,87 %
28.08.2022 07:44 15,9 C 15,6 C 12,2 C 81 % 1019,9 hPa 0,0 l/m 0 min 0 min 41 W/m 6,4 km/h (2 Bft) 97,87 %
28.08.2022 07:46 15,9 C 15,6 C 12,2 C 81 % 1020,0 hPa 0,0 l/m 0 min 0 min 42 W/m 6,4 km/h (2 Bft) 95,74 %
28.08.2022 07:48 15,9 C 15,6 C 12,2 C 81 % 1019,9 hPa 0,0 l/m 0 min 0 min 42 W/m 6,4 km/h (2 Bft) 97,87 %
28.08.2022 07:50 15,9 C 15,6 C 12,2 C 81 % 1019,9 hPa 0,0 l/m 0 min 0 min 44 W/m 9,7 km/h (2 Bft) 97,87 %
28.08.2022 07:52 15,9 C 15,6 C 12,2 C 81 % 1020,0 hPa 0,0 l/m 0 min 0 min 45 W/m 6,4 km/h (2 Bft) 97,83 %
28.08.2022 07:54 15,9 C 15,6 C 12,2 C 81 % 1020,0 hPa 0,0 l/m 0 min 0 min 47 W/m 6,4 km/h (2 Bft) 97,87 %
28.08.2022 07:56 15,9 C 15,6 C 11,7 C 81 % 1020,0 hPa 0,0 l/m 0 min 0 min 48 W/m 6,4 km/h (2 Bft) 97,87 %
28.08.2022 07:58 15,9 C 15,6 C 11,7 C 82 % 1020,0 hPa 0,0 l/m 0 min 0 min 50 W/m 6,4 km/h (2 Bft) 97,87 %
28.08.2022 08:00 15,9 C 15,6 C 12,2 C 82 % 1020,0 hPa 0,0 l/m 0 min 0 min 51 W/m 3,2 km/h (1 Bft) 97,87 %
28.08.2022 08:02 15,9 C 15,6 C 12,2 C 82 % 1020,1 hPa 0,0 l/m 0 min 0 min 53 W/m 9,7 km/h (2 Bft) 97,87 %
28.08.2022 08:04 15,9 C 15,6 C 11,7 C 82 % 1020,1 hPa 0,0 l/m 0 min 0 min 53 W/m 3,2 km/h (1 Bft) 97,83 %
28.08.2022 08:06 15,9 C 15,6 C 12,2 C 82 % 1020,1 hPa 0,0 l/m 0 min 0 min 55 W/m 3,2 km/h (1 Bft) 97,87 %
28.08.2022 08:08 15,9 C 15,6 C 12,2 C 82 % 1020,1 hPa 0,0 l/m 0 min 0 min 58 W/m 3,2 km/h (1 Bft) 97,87 %
28.08.2022 08:10 15,9 C 15,6 C 12,2 C 82 % 1020,2 hPa 0,0 l/m 0 min 0 min 59 W/m 6,4 km/h (2 Bft) 93,62 %
28.08.2022 08:12 15,9 C 15,6 C 12,2 C 82 % 1020,2 hPa 0,0 l/m 0 min 0 min 62 W/m 6,4 km/h (2 Bft) 97,87 %
28.08.2022 08:14 15,9 C 15,6 C 12,2 C 82 % 1020,2 hPa 0,0 l/m 0 min 0 min 64 W/m 6,4 km/h (2 Bft) 97,87 %
28.08.2022 08:16 15,9 C 15,6 C 12,2 C 82 % 1020,2 hPa 0,0 l/m 0 min 0 min 67 W/m 6,4 km/h (2 Bft) 97,83 %
28.08.2022 08:18 15,9 C 15,6 C 12,2 C 82 % 1020,2 hPa 0,0 l/m 0 min 0 min 69 W/m 12,9 km/h (3 Bft) 97,87 %
28.08.2022 08:20 15,9 C 15,6 C 12,2 C 82 % 1020,1 hPa 0,0 l/m 0 min 0 min 70 W/m 6,4 km/h (2 Bft) 97,87 %
28.08.2022 08:22 15,9 C 15,6 C 12,2 C 82 % 1020,2 hPa 0,0 l/m 0 min 0 min 73 W/m 3,2 km/h (1 Bft) 97,87 %
28.08.2022 08:24 15,9 C 15,6 C 12,2 C 82 % 1020,1 hPa 0,0 l/m 0 min 0 min 77 W/m 3,2 km/h (1 Bft) 95,74 %
28.08.2022 08:26 16,0 C 15,6 C 12,2 C 82 % 1020,1 hPa 0,0 l/m 0 min 0 min 81 W/m 6,4 km/h (2 Bft) 97,87 %
28.08.2022 08:28 16,0 C 15,6 C 12,2 C 82 % 1020,1 hPa 0,0 l/m 0 min 0 min 81 W/m 9,7 km/h (2 Bft) 97,83 %
28.08.2022 08:30 16,0 C 15,6 C 12,2 C 82 % 1020,2 hPa 0,0 l/m 0 min 0 min 82 W/m 3,2 km/h (1 Bft) 97,87 %
28.08.2022 08:32 16,0 C 16,1 C 12,2 C 82 % 1020,2 hPa 0,0 l/m 0 min 0 min 88 W/m 3,2 km/h (1 Bft) 97,87 %
28.08.2022 08:34 16,1 C 16,1 C 12,2 C 82 % 1020,3 hPa 0,0 l/m 0 min 0 min 92 W/m 6,4 km/h (2 Bft) 97,87 %
28.08.2022 08:36 16,1 C 16,1 C 12,2 C 82 % 1020,3 hPa 0,0 l/m 0 min 0 min 94 W/m 9,7 km/h (2 Bft) 97,87 %
28.08.2022 08:38 16,1 C 16,1 C 12,8 C 82 % 1020,3 hPa 0,0 l/m 0 min 0 min 96 W/m 3,2 km/h (1 Bft) 97,87 %
28.08.2022 08:40 16,2 C 16,1 C 12,8 C 82 % 1020,3 hPa 0,0 l/m 0 min 0 min 97 W/m 6,4 km/h (2 Bft) 93,48 %
28.08.2022 08:42 16,2 C 16,1 C 12,8 C 81 % 1020,3 hPa 0,0 l/m 0 min 0 min 99 W/m 9,7 km/h (2 Bft) 95,74 %
28.08.2022 08:44 16,3 C 16,1 C 12,8 C 82 % 1020,4 hPa 0,0 l/m 0 min 0 min 104 W/m 6,4 km/h (2 Bft) 97,87 %
28.08.2022 08:46 16,3 C 16,7 C 12,8 C 81 % 1020,4 hPa 0,0 l/m 0 min 0 min 107 W/m 3,2 km/h (1 Bft) 97,87 %
28.08.2022 08:48 16,4 C 16,7 C 12,8 C 81 % 1020,4 hPa 0,0 l/m 0 min 0 min 105 W/m 12,9 km/h (3 Bft) 97,87 %
28.08.2022 08:50 16,4 C 16,7 C 12,8 C 81 % 1020,4 hPa 0,0 l/m 0 min 0 min 109 W/m 9,7 km/h (2 Bft) 97,83 %
28.08.2022 08:52 16,5 C 16,7 C 12,8 C 80 % 1020,3 hPa 0,0 l/m 2 min 0 min 222 W/m 6,4 km/h (2 Bft) 97,87 %
28.08.2022 08:54 16,6 C 16,7 C 12,8 C 80 % 1020,3 hPa 0,0 l/m 2 min 0 min 290 W/m 6,4 km/h (2 Bft) 97,87 %
28.08.2022 08:56 16,6 C 16,7 C 12,8 C 80 % 1020,4 hPa 0,0 l/m 2 min 0 min 297 W/m 9,7 km/h (2 Bft) 95,74 %
28.08.2022 08:58 16,6 C 16,7 C 12,8 C 80 % 1020,3 hPa 0,0 l/m 2 min 0 min 297 W/m 9,7 km/h (2 Bft) 97,87 %
28.08.2022 09:00 16,7 C 16,7 C 12,8 C 80 % 1020,3 hPa 0,0 l/m 2 min 0 min 308 W/m 6,4 km/h (2 Bft) 97,87 %
28.08.2022 09:02 16,7 C 16,7 C 12,8 C 80 % 1020,3 hPa 0,0 l/m 2 min 0 min 309 W/m 6,4 km/h (2 Bft) 97,83 %
28.08.2022 09:04 16,8 C 16,7 C 12,8 C 80 % 1020,4 hPa 0,0 l/m 2 min 0 min 315 W/m 6,4 km/h (2 Bft) 97,87 %
28.08.2022 09:06 16,9 C 17,8 C 12,8 C 79 % 1020,3 hPa 0,0 l/m 2 min 0 min 318 W/m 9,7 km/h (2 Bft) 97,87 %
28.08.2022 09:08 16,9 C 18,9 C 12,8 C 79 % 1020,4 hPa 0,0 l/m 2 min 0 min 344 W/m 12,9 km/h (3 Bft) 97,87 %
28.08.2022 09:10 17,0 C 19,4 C 13,3 C 79 % 1020,4 hPa 0,0 l/m 2 min 0 min 368 W/m 12,9 km/h (3 Bft) 97,87 %
28.08.2022 09:12 17,1 C 20,0 C 13,3 C 79 % 1020,4 hPa 0,0 l/m 2 min 0 min 363 W/m 6,4 km/h (2 Bft) 93,62 %
28.08.2022 09:14 17,2 C 20,6 C 13,3 C 78 % 1020,4 hPa 0,0 l/m 2 min 0 min 329 W/m 9,7 km/h (2 Bft) 97,83 %
28.08.2022 09:16 17,4 C 20,6 C 13,3 C 78 % 1020,4 hPa 0,0 l/m 2 min 0 min 360 W/m 12,9 km/h (3 Bft) 97,87 %
28.08.2022 09:18 17,5 C 20,0 C 13,9 C 78 % 1020,5 hPa 0,0 l/m 2 min 0 min 412 W/m 12,9 km/h (3 Bft) 97,87 %
28.08.2022 09:20 17,6 C 20,0 C 13,9 C 77 % 1020,4 hPa 0,0 l/m 2 min 0 min 437 W/m 9,7 km/h (2 Bft) 93,62 %
28.08.2022 09:22 17,8 C 20,0 C 13,9 C 77 % 1020,4 hPa 0,0 l/m 2 min 0 min 421 W/m 16,1 km/h (3 Bft) 95,74 %
28.08.2022 09:24 17,8 C 19,4 C 13,9 C 76 % 1020,4 hPa 0,0 l/m 2 min 0 min 408 W/m 9,7 km/h (2 Bft) 95,74 %
28.08.2022 09:26 17,9 C 19,4 C 13,9 C 76 % 1020,4 hPa 0,0 l/m 2 min 0 min 407 W/m 9,7 km/h (2 Bft) 93,48 %
28.08.2022 09:28 18,1 C 19,4 C 13,9 C 76 % 1020,4 hPa 0,0 l/m 2 min 0 min 224 W/m 9,7 km/h (2 Bft) 97,87 %
28.08.2022 09:30 18,1 C 19,4 C 13,9 C 75 % 1020,5 hPa 0,0 l/m 2 min 0 min 371 W/m 9,7 km/h (2 Bft) 97,87 %
28.08.2022 09:32 18,2 C 19,4 C 14,4 C 75 % 1020,5 hPa 0,0 l/m 2 min 0 min 397 W/m 9,7 km/h (2 Bft) 95,74 %
28.08.2022 09:34 18,3 C 19,4 C 14,4 C 75 % 1020,5 hPa 0,0 l/m 2 min 0 min 349 W/m 12,9 km/h (3 Bft) 93,62 %
28.08.2022 09:36 18,3 C 18,9 C 14,4 C 74 % 1020,5 hPa 0,0 l/m 2 min 0 min 249 W/m 16,1 km/h (3 Bft) 97,87 %
28.08.2022 09:38 18,4 C 18,9 C 14,4 C 74 % 1020,5 hPa 0,0 l/m 0 min 0 min 197 W/m 9,7 km/h (2 Bft) 97,83 %
28.08.2022 09:40 18,5 C 18,9 C 14,4 C 74 % 1020,5 hPa 0,0 l/m 0 min 0 min 181 W/m 9,7 km/h (2 Bft) 97,87 %
28.08.2022 09:42 18,6 C 18,9 C 14,4 C 73 % 1020,5 hPa 0,0 l/m 0 min 0 min 183 W/m 22,5 km/h (4 Bft) 97,87 %
28.08.2022 09:44 18,6 C 18,9 C 15,0 C 73 % 1020,5 hPa 0,0 l/m 0 min 0 min 191 W/m 12,9 km/h (3 Bft) 97,87 %
28.08.2022 09:46 18,7 C 18,9 C 15,0 C 73 % 1020,5 hPa 0,0 l/m 0 min 0 min 196 W/m 12,9 km/h (3 Bft) 97,87 %
28.08.2022 09:48 18,8 C 19,4 C 15,0 C 73 % 1020,6 hPa 0,0 l/m 0 min 0 min 199 W/m 19,3 km/h (3 Bft) 97,87 %
28.08.2022 09:50 18,8 C 18,9 C 15,0 C 72 % 1020,6 hPa 0,0 l/m 0 min 0 min 196 W/m 16,1 km/h (3 Bft) 95,65 %
28.08.2022 09:52 18,9 C 18,9 C 15,0 C 72 % 1020,7 hPa 0,0 l/m 0 min 0 min 187 W/m 6,4 km/h (2 Bft) 97,87 %
28.08.2022 09:54 18,9 C 18,9 C 15,0 C 72 % 1020,6 hPa 0,0 l/m 0 min 0 min 183 W/m 16,1 km/h (3 Bft) 97,87 %
28.08.2022 09:56 18,9 C 18,9 C 15,0 C 72 % 1020,6 hPa 0,0 l/m 0 min 0 min 194 W/m 16,1 km/h (3 Bft) 97,87 %
28.08.2022 09:58 18,9 C 18,9 C 15,0 C 72 % 1020,6 hPa 0,0 l/m 0 min 0 min 194 W/m 19,3 km/h (3 Bft) 97,87 %
28.08.2022 10:00 19,0 C 18,9 C 15,0 C 71 % 1020,6 hPa 0,0 l/m 0 min 0 min 209 W/m 19,3 km/h (3 Bft) 100,00 %
28.08.2022 10:02 19,0 C 18,9 C 15,0 C 72 % 1020,7 hPa 0,0 l/m 0 min 0 min 228 W/m 9,7 km/h (2 Bft) 100,00 %
28.08.2022 10:04 19,1 C 19,4 C 15,0 C 72 % 1020,6 hPa 0,0 l/m 0 min 0 min 213 W/m 16,1 km/h (3 Bft) 97,87 %
28.08.2022 10:06 19,1 C 18,9 C 15,0 C 71 % 1020,7 hPa 0,0 l/m 0 min 0 min 203 W/m 19,3 km/h (3 Bft) 100,00 %
28.08.2022 10:08 19,1 C 19,4 C 15,0 C 72 % 1020,6 hPa 0,0 l/m 0 min 0 min 195 W/m 12,9 km/h (3 Bft) 100,00 %
28.08.2022 10:10 19,1 C 19,4 C 15,0 C 72 % 1020,6 hPa 0,0 l/m 0 min 0 min 193 W/m 16,1 km/h (3 Bft) 100,00 %
28.08.2022 10:12 19,1 C 18,9 C 15,0 C 71 % 1020,6 hPa 0,0 l/m 0 min 0 min 173 W/m 19,3 km/h (3 Bft) 97,83 %
28.08.2022 10:14 19,1 C 18,9 C 15,0 C 71 % 1020,6 hPa 0,0 l/m 0 min 0 min 151 W/m 16,1 km/h (3 Bft) 100,00 %
28.08.2022 10:16 19,0 C 18,9 C 15,0 C 71 % 1020,7 hPa 0,0 l/m 0 min 0 min 174 W/m 12,9 km/h (3 Bft) 100,00 %
28.08.2022 10:18 19,0 C 19,4 C 15,0 C 71 % 1020,7 hPa 0,0 l/m 0 min 0 min 195 W/m 6,4 km/h (2 Bft) 100,00 %
28.08.2022 10:20 19,0 C 18,9 C 15,0 C 71 % 1020,7 hPa 0,0 l/m 0 min 0 min 162 W/m 9,7 km/h (2 Bft) 100,00 %
28.08.2022 10:22 18,9 C 18,9 C 15,0 C 70 % 1020,7 hPa 0,0 l/m 0 min 0 min 99 W/m 16,1 km/h (3 Bft) 100,00 %
28.08.2022 10:24 18,8 C 18,3 C 14,4 C 70 % 1020,7 hPa 0,0 l/m 0 min 0 min 113 W/m 16,1 km/h (3 Bft) 100,00 %
28.08.2022 10:26 18,8 C 18,3 C 14,4 C 70 % 1020,8 hPa 0,0 l/m 0 min 0 min 96 W/m 12,9 km/h (3 Bft) 100,00 %
28.08.2022 10:28 18,6 C 17,8 C 14,4 C 70 % 1020,7 hPa 0,0 l/m 0 min 0 min 100 W/m 25,7 km/h (4 Bft) 100,00 %
28.08.2022 10:30 18,5 C 17,8 C 13,9 C 70 % 1020,7 hPa 0,0 l/m 0 min 0 min 126 W/m 16,1 km/h (3 Bft) 100,00 %
28.08.2022 10:32 18,4 C 18,3 C 14,4 C 70 % 1020,8 hPa 0,0 l/m 2 min 0 min 384 W/m 12,9 km/h (3 Bft) 97,87 %
28.08.2022 10:34 18,4 C 18,9 C 14,4 C 72 % 1020,8 hPa 0,0 l/m 2 min 0 min 527 W/m 12,9 km/h (3 Bft) 100,00 %
28.08.2022 10:36 18,4 C 18,9 C 14,4 C 71 % 1020,9 hPa 0,0 l/m 2 min 0 min 402 W/m 12,9 km/h (3 Bft) 100,00 %
28.08.2022 10:38 18,5 C 18,9 C 14,4 C 71 % 1020,8 hPa 0,0 l/m 0 min 0 min 226 W/m 19,3 km/h (3 Bft) 100,00 %
28.08.2022 10:40 18,4 C 18,3 C 14,4 C 71 % 1020,7 hPa 0,0 l/m 2 min 0 min 585 W/m 16,1 km/h (3 Bft) 100,00 %
28.08.2022 10:42 18,4 C 18,9 C 14,4 C 71 % 1020,8 hPa 0,0 l/m 2 min 0 min 585 W/m 9,7 km/h (2 Bft) 100,00 %
28.08.2022 10:44 18,5 C 18,3 C 14,4 C 71 % 1020,8 hPa 0,0 l/m 2 min 0 min 302 W/m 19,3 km/h (3 Bft) 100,00 %
28.08.2022 10:46 18,5 C 18,3 C 14,4 C 71 % 1020,9 hPa 0,0 l/m 0 min 0 min 143 W/m 19,3 km/h (3 Bft) 100,00 %
28.08.2022 10:48 18,5 C 18,3 C 14,4 C 71 % 1020,9 hPa 0,0 l/m 0 min 0 min 141 W/m 9,7 km/h (2 Bft) 100,00 %
28.08.2022 10:50 18,5 C 18,3 C 14,4 C 70 % 1020,8 hPa 0,0 l/m 0 min 0 min 94 W/m 19,3 km/h (3 Bft) 100,00 %
28.08.2022 10:52 18,6 C 18,9 C 14,4 C 71 % 1020,8 hPa 0,0 l/m 0 min 0 min 100 W/m 9,7 km/h (2 Bft) 100,00 %
28.08.2022 10:54 18,6 C 18,9 C 14,4 C 70 % 1020,9 hPa 0,0 l/m 0 min 0 min 83 W/m 9,7 km/h (2 Bft) 100,00 %
28.08.2022 10:56 18,7 C 18,9 C 15,0 C 70 % 1020,8 hPa 0,0 l/m 0 min 0 min 109 W/m 12,9 km/h (3 Bft) 97,87 %
28.08.2022 10:58 18,8 C 18,9 C 15,0 C 70 % 1020,8 hPa 0,0 l/m 0 min 0 min 186 W/m 12,9 km/h (3 Bft) 97,87 %
28.08.2022 11:00 18,8 C 19,4 C 15,0 C 70 % 1020,9 hPa 0,0 l/m 0 min 0 min 217 W/m 6,4 km/h (2 Bft) 97,87 %
28.08.2022 11:02 18,9 C 19,4 C 15,0 C 70 % 1020,9 hPa 0,0 l/m 2 min 0 min 457 W/m 12,9 km/h (3 Bft) 100,00 %
28.08.2022 11:04 19,0 C 19,4 C 15,0 C 69 % 1020,8 hPa 0,0 l/m 2 min 0 min 528 W/m 9,7 km/h (2 Bft) 100,00 %
28.08.2022 11:06 19,1 C 19,4 C 15,0 C 69 % 1020,8 hPa 0,0 l/m 2 min 0 min 622 W/m 16,1 km/h (3 Bft) 100,00 %
28.08.2022 11:08 19,1 C 18,9 C 15,0 C 69 % 1020,7 hPa 0,0 l/m 2 min 0 min 508 W/m 9,7 km/h (2 Bft) 100,00 %
28.08.2022 11:10 19,1 C 19,4 C 15,0 C 69 % 1020,7 hPa 0,0 l/m 0 min 0 min 306 W/m 6,4 km/h (2 Bft) 97,87 %
28.08.2022 11:12 19,2 C 19,4 C 15,6 C 70 % 1020,7 hPa 0,0 l/m 2 min 0 min 686 W/m 19,3 km/h (3 Bft) 100,00 %
28.08.2022 11:14 19,3 C 19,4 C 15,6 C 69 % 1020,7 hPa 0,0 l/m 2 min 0 min 704 W/m 19,3 km/h (3 Bft) 95,74 %
28.08.2022 11:16 19,3 C 19,4 C 15,6 C 68 % 1020,7 hPa 0,0 l/m 2 min 0 min 703 W/m 22,5 km/h (4 Bft) 97,87 %
28.08.2022 11:18 19,4 C 20,0 C 15,6 C 68 % 1020,8 hPa 0,0 l/m 2 min 0 min 703 W/m 6,4 km/h (2 Bft) 93,62 %
28.08.2022 11:20 19,4 C 20,0 C 15,6 C 68 % 1020,8 hPa 0,0 l/m 2 min 0 min 698 W/m 22,5 km/h (4 Bft) 95,74 %
28.08.2022 11:22 19,5 C 20,0 C 15,6 C 67 % 1020,8 hPa 0,0 l/m 2 min 0 min 682 W/m 12,9 km/h (3 Bft) 97,87 %
28.08.2022 11:24 19,6 C 20,0 C 15,6 C 68 % 1020,8 hPa 0,0 l/m 2 min 0 min 688 W/m 12,9 km/h (3 Bft) 95,65 %
28.08.2022 11:26 19,6 C 20,6 C 16,1 C 67 % 1020,8 hPa 0,0 l/m 2 min 0 min 698 W/m 6,4 km/h (2 Bft) 93,62 %
28.08.2022 11:28 19,8 C 20,6 C 16,1 C 66 % 1020,8 hPa 0,0 l/m 2 min 0 min 699 W/m 19,3 km/h (3 Bft) 91,49 %
28.08.2022 11:30 19,8 C 20,6 C 16,1 C 66 % 1020,8 hPa 0,0 l/m 2 min 0 min 687 W/m 12,9 km/h (3 Bft) 93,62 %
28.08.2022 11:32 19,9 C 20,6 C 16,1 C 66 % 1020,8 hPa 0,0 l/m 2 min 0 min 692 W/m 16,1 km/h (3 Bft) 91,67 %
28.08.2022 11:34 19,9 C 22,2 C 16,1 C 66 % 1020,9 hPa 0,0 l/m 2 min 0 min 703 W/m 12,9 km/h (3 Bft) 93,62 %
28.08.2022 11:36 20,1 C 22,2 C 16,1 C 66 % 1020,9 hPa 0,0 l/m 2 min 0 min 704 W/m 9,7 km/h (2 Bft) 91,30 %
28.08.2022 11:38 20,1 C 21,7 C 16,7 C 66 % 1020,9 hPa 0,0 l/m 2 min 0 min 706 W/m 9,7 km/h (2 Bft) 95,74 %
28.08.2022 11:40 20,2 C 21,7 C 16,7 C 66 % 1020,9 hPa 0,0 l/m 2 min 0 min 736 W/m 9,7 km/h (2 Bft) 95,74 %
28.08.2022 11:42 20,3 C 21,1 C 17,2 C 65 % 1020,9 hPa 0,0 l/m 2 min 0 min 745 W/m 16,1 km/h (3 Bft) 93,62 %
28.08.2022 11:44 20,4 C 21,7 C 17,2 C 65 % 1020,9 hPa 0,0 l/m 2 min 0 min 758 W/m 12,9 km/h (3 Bft) 95,74 %
28.08.2022 11:46 20,4 C 21,1 C 17,8 C 64 % 1020,9 hPa 0,0 l/m 2 min 0 min 756 W/m 16,1 km/h (3 Bft) 91,49 %
28.08.2022 11:48 20,4 C 21,1 C 17,2 C 64 % 1020,9 hPa 0,0 l/m 2 min 0 min 739 W/m 16,1 km/h (3 Bft) 91,30 %
28.08.2022 11:50 20,5 C 22,2 C 17,2 C 64 % 1020,9 hPa 0,0 l/m 2 min 0 min 741 W/m 6,4 km/h (2 Bft) 93,62 %
28.08.2022 11:52 20,6 C 23,3 C 17,8 C 64 % 1020,9 hPa 0,0 l/m 2 min 0 min 735 W/m 6,4 km/h (2 Bft) 93,62 %
28.08.2022 11:54 20,6 C 25,0 C 17,8 C 64 % 1020,9 hPa 0,0 l/m 2 min 0 min 728 W/m 9,7 km/h (2 Bft) 95,74 %
28.08.2022 11:56 20,8 C 25,6 C 18,9 C 64 % 1020,9 hPa 0,0 l/m 2 min 0 min 751 W/m 12,9 km/h (3 Bft) 93,62 %
28.08.2022 11:58 20,8 C 25,0 C 18,9 C 63 % 1020,9 hPa 0,0 l/m 2 min 0 min 760 W/m 19,3 km/h (3 Bft) 93,62 %
28.08.2022 12:00 20,8 C 26,1 C 18,9 C 62 % 1020,9 hPa 0,0 l/m 2 min 0 min 754 W/m 16,1 km/h (3 Bft) 95,65 %
28.08.2022 12:02 20,8 C 27,8 C 19,4 C 62 % 1020,9 hPa 0,0 l/m 2 min 0 min 745 W/m 16,1 km/h (3 Bft) 95,74 %
28.08.2022 12:04 20,9 C 27,8 C 20,6 C 62 % 1020,9 hPa 0,0 l/m 2 min 0 min 743 W/m 12,9 km/h (3 Bft) 95,74 %
28.08.2022 12:10 21,1 C 28,3 C 20,6 C 61 % 1020,9 hPa 0,0 l/m 5 min 0 min 752 W/m 16,1 km/h (3 Bft) 97,18 %
28.08.2022 12:12 21,0 C 28,3 C 20,0 C 61 % 1020,9 hPa 0,0 l/m 2 min 0 min 748 W/m 9,7 km/h (2 Bft) 97,87 %
28.08.2022 12:14 21,0 C 28,9 C 20,0 C 62 % 1020,9 hPa 0,0 l/m 2 min 0 min 757 W/m 16,1 km/h (3 Bft) 95,65 %
28.08.2022 12:16 21,1 C 28,9 C 20,0 C 62 % 1020,9 hPa 0,0 l/m 2 min 0 min 764 W/m 16,1 km/h (3 Bft) 95,74 %
28.08.2022 12:18 21,1 C 28,3 C 18,9 C 62 % 1020,9 hPa 0,0 l/m 0 min 0 min 341 W/m 16,1 km/h (3 Bft) 97,87 %
28.08.2022 12:20 21,2 C 29,4 C 18,3 C 61 % 1020,9 hPa 0,0 l/m 2 min 0 min 640 W/m 16,1 km/h (3 Bft) 97,87 %
28.08.2022 12:22 21,2 C 29,4 C 18,3 C 61 % 1020,8 hPa 0,0 l/m 2 min 0 min 758 W/m 16,1 km/h (3 Bft) 97,87 %
28.08.2022 12:24 21,3 C 29,4 C 18,3 C 61 % 1020,8 hPa 0,0 l/m 2 min 0 min 760 W/m 16,1 km/h (3 Bft) 97,87 %
28.08.2022 12:26 21,4 C 28,9 C 17,8 C 61 % 1020,8 hPa 0,0 l/m 2 min 0 min 765 W/m 16,1 km/h (3 Bft) 97,83 %
28.08.2022 12:28 21,5 C 29,4 C 17,8 C 61 % 1020,8 hPa 0,0 l/m 2 min 0 min 775 W/m 9,7 km/h (2 Bft) 95,74 %
28.08.2022 12:30 21,6 C 30,0 C 17,8 C 60 % 1020,7 hPa 0,0 l/m 2 min 0 min 780 W/m 16,1 km/h (3 Bft) 100,00 %
28.08.2022 12:32 21,6 C 30,0 C 17,8 C 61 % 1020,8 hPa 0,0 l/m 2 min 0 min 778 W/m 9,7 km/h (2 Bft) 97,87 %
28.08.2022 12:34 21,7 C 30,0 C 17,8 C 61 % 1020,8 hPa 0,0 l/m 2 min 0 min 776 W/m 12,9 km/h (3 Bft) 100,00 %
28.08.2022 12:36 21,8 C 28,9 C 17,8 C 59 % 1020,8 hPa 0,0 l/m 2 min 0 min 776 W/m 9,7 km/h (2 Bft) 100,00 %
28.08.2022 12:38 21,8 C 27,8 C 17,8 C 60 % 1020,8 hPa 0,0 l/m 2 min 0 min 775 W/m 12,9 km/h (3 Bft) 100,00 %
28.08.2022 12:40 21,9 C 27,2 C 17,8 C 60 % 1020,8 hPa 0,0 l/m 2 min 0 min 777 W/m 9,7 km/h (2 Bft) 100,00 %
28.08.2022 12:42 21,9 C 26,1 C 17,8 C 59 % 1020,7 hPa 0,0 l/m 2 min 0 min 767 W/m 12,9 km/h (3 Bft) 100,00 %
28.08.2022 12:44 21,9 C 24,4 C 17,8 C 59 % 1020,8 hPa 0,0 l/m 2 min 0 min 580 W/m 19,3 km/h (3 Bft) 100,00 %
28.08.2022 12:46 22,0 C 24,4 C 17,8 C 60 % 1020,8 hPa 0,0 l/m 2 min 0 min 375 W/m 9,7 km/h (2 Bft) 100,00 %
28.08.2022 12:48 22,0 C 23,9 C 17,2 C 60 % 1020,7 hPa 0,0 l/m 2 min 0 min 605 W/m 19,3 km/h (3 Bft) 100,00 %
28.08.2022 12:50 22,0 C 23,9 C 17,2 C 60 % 1020,8 hPa 0,0 l/m 2 min 0 min 794 W/m 19,3 km/h (3 Bft) 100,00 %
28.08.2022 12:52 22,1 C 23,3 C 17,2 C 59 % 1020,8 hPa 0,0 l/m 2 min 0 min 839 W/m 29,0 km/h (5 Bft) 100,00 %
28.08.2022 12:54 22,0 C 22,8 C 17,2 C 59 % 1020,8 hPa 0,0 l/m 2 min 0 min 548 W/m 16,1 km/h (3 Bft) 100,00 %
28.08.2022 12:56 21,9 C 22,2 C 17,2 C 59 % 1020,8 hPa 0,0 l/m 2 min 0 min 380 W/m 12,9 km/h (3 Bft) 100,00 %
28.08.2022 12:58 21,7 C 21,7 C 17,2 C 59 % 1020,8 hPa 0,0 l/m 2 min 0 min 757 W/m 9,7 km/h (2 Bft) 97,87 %
28.08.2022 13:00 21,7 C 21,7 C 17,2 C 60 % 1020,8 hPa 0,0 l/m 2 min 0 min 787 W/m 12,9 km/h (3 Bft) 100,00 %
28.08.2022 13:02 21,7 C 21,7 C 17,2 C 60 % 1020,8 hPa 0,0 l/m 2 min 0 min 767 W/m 9,7 km/h (2 Bft) 100,00 %
28.08.2022 13:04 21,7 C 21,7 C 17,2 C 61 % 1020,8 hPa 0,0 l/m 2 min 0 min 609 W/m 9,7 km/h (2 Bft) 100,00 %
28.08.2022 13:06 21,8 C 22,2 C 17,2 C 60 % 1020,8 hPa 0,0 l/m 2 min 0 min 379 W/m 12,9 km/h (3 Bft) 97,87 %
28.08.2022 13:08 21,8 C 21,7 C 17,2 C 59 % 1020,6 hPa 0,0 l/m 0 min 0 min 345 W/m 12,9 km/h (3 Bft) 100,00 %
28.08.2022 13:10 21,9 C 21,7 C 17,2 C 59 % 1020,7 hPa 0,0 l/m 0 min 0 min 350 W/m 12,9 km/h (3 Bft) 100,00 %
28.08.2022 13:12 22,0 C 22,2 C 17,8 C 60 % 1020,8 hPa 0,0 l/m 0 min 0 min 243 W/m 16,1 km/h (3 Bft) 100,00 %
28.08.2022 13:14 22,1 C 22,2 C 17,2 C 59 % 1020,8 hPa 0,0 l/m 0 min 0 min 175 W/m 16,1 km/h (3 Bft) 100,00 %
28.08.2022 13:16 22,1 C 21,7 C 17,2 C 58 % 1020,7 hPa 0,0 l/m 0 min 0 min 107 W/m 12,9 km/h (3 Bft) 100,00 %
28.08.2022 13:18 22,1 C 21,7 C 17,2 C 59 % 1020,8 hPa 0,0 l/m 0 min 0 min 185 W/m 16,1 km/h (3 Bft) 100,00 %
28.08.2022 13:20 22,1 C 21,7 C 17,2 C 59 % 1020,8 hPa 0,0 l/m 0 min 0 min 327 W/m 16,1 km/h (3 Bft) 100,00 %
28.08.2022 13:22 22,1 C 21,7 C 17,8 C 59 % 1020,7 hPa 0,0 l/m 0 min 0 min 327 W/m 12,9 km/h (3 Bft) 100,00 %
28.08.2022 13:24 22,1 C 22,2 C 17,8 C 59 % 1020,8 hPa 0,0 l/m 0 min 0 min 354 W/m 12,9 km/h (3 Bft) 97,87 %
28.08.2022 13:26 22,1 C 21,7 C 17,8 C 58 % 1020,8 hPa 0,0 l/m 2 min 0 min 367 W/m 12,9 km/h (3 Bft) 100,00 %
28.08.2022 13:28 22,1 C 21,7 C 17,8 C 58 % 1020,7 hPa 0,0 l/m 2 min 0 min 611 W/m 12,9 km/h (3 Bft) 97,87 %
28.08.2022 13:30 22,1 C 21,7 C 17,2 C 57 % 1020,8 hPa 0,0 l/m 2 min 0 min 794 W/m 16,1 km/h (3 Bft) 100,00 %
28.08.2022 13:32 22,1 C 22,2 C 17,8 C 59 % 1020,7 hPa 0,0 l/m 2 min 0 min 792 W/m 19,3 km/h (3 Bft) 97,87 %
28.08.2022 13:34 22,2 C 22,2 C 17,8 C 58 % 1020,7 hPa 0,0 l/m 2 min 0 min 802 W/m 16,1 km/h (3 Bft) 97,87 %
28.08.2022 13:36 22,3 C 22,8 C 17,8 C 58 % 1020,8 hPa 0,0 l/m 2 min 0 min 809 W/m 16,1 km/h (3 Bft) 100,00 %
28.08.2022 13:38 22,3 C 22,8 C 17,8 C 58 % 1020,8 hPa 0,0 l/m 2 min 0 min 806 W/m 12,9 km/h (3 Bft) 97,83 %
28.08.2022 13:40 22,4 C 23,9 C 17,8 C 58 % 1020,8 hPa 0,0 l/m 2 min 0 min 808 W/m 16,1 km/h (3 Bft) 97,87 %
28.08.2022 13:42 22,4 C 23,9 C 17,8 C 57 % 1020,7 hPa 0,0 l/m 2 min 0 min 833 W/m 16,1 km/h (3 Bft) 97,87 %
28.08.2022 13:44 22,4 C 23,9 C 17,8 C 58 % 1020,8 hPa 0,0 l/m 2 min 0 min 843 W/m 16,1 km/h (3 Bft) 95,74 %
28.08.2022 13:46 22,4 C 23,9 C 17,8 C 57 % 1020,8 hPa 0,0 l/m 2 min 0 min 813 W/m 16,1 km/h (3 Bft) 95,74 %
28.08.2022 13:48 22,5 C 24,4 C 17,8 C 57 % 1020,8 hPa 0,0 l/m 2 min 0 min 821 W/m 19,3 km/h (3 Bft) 93,48 %
28.08.2022 13:50 22,6 C 26,7 C 17,8 C 57 % 1020,7 hPa 0,0 l/m 2 min 0 min 815 W/m 19,3 km/h (3 Bft) 93,62 %
28.08.2022 13:52 22,6 C 27,8 C 17,8 C 57 % 1020,7 hPa 0,0 l/m 2 min 0 min 816 W/m 12,9 km/h (3 Bft) 95,74 %
28.08.2022 13:54 22,7 C 28,3 C 17,8 C 56 % 1020,8 hPa 0,0 l/m 2 min 0 min 811 W/m 16,1 km/h (3 Bft) 95,74 %
28.08.2022 13:56 22,8 C 28,9 C 17,8 C 55 % 1020,8 hPa 0,0 l/m 2 min 0 min 815 W/m 19,3 km/h (3 Bft) 93,62 %
28.08.2022 13:58 22,8 C 29,4 C 17,8 C 55 % 1020,7 hPa 0,0 l/m 2 min 0 min 821 W/m 12,9 km/h (3 Bft) 93,62 %
28.08.2022 14:00 22,9 C 30,0 C 18,3 C 56 % 1020,7 hPa 0,0 l/m 2 min 0 min 809 W/m 22,5 km/h (4 Bft) 95,74 %
28.08.2022 14:02 22,9 C 30,0 C 17,8 C 55 % 1020,7 hPa 0,0 l/m 2 min 0 min 805 W/m 12,9 km/h (3 Bft) 93,48 %
28.08.2022 14:04 23,0 C 29,4 C 17,8 C 55 % 1020,7 hPa 0,0 l/m 2 min 0 min 805 W/m 22,5 km/h (4 Bft) 93,62 %
28.08.2022 14:06 23,1 C 29,4 C 17,8 C 55 % 1020,6 hPa 0,0 l/m 2 min 0 min 801 W/m 19,3 km/h (3 Bft) 91,49 %
28.08.2022 14:08 23,1 C 29,4 C 18,3 C 55 % 1020,7 hPa 0,0 l/m 2 min 0 min 801 W/m 16,1 km/h (3 Bft) 97,87 %
28.08.2022 14:10 23,2 C 30,0 C 18,3 C 55 % 1020,7 hPa 0,0 l/m 2 min 0 min 795 W/m 19,3 km/h (3 Bft) 97,87 %
28.08.2022 14:12 23,2 C 30,6 C 18,3 C 55 % 1020,7 hPa 0,0 l/m 2 min 0 min 796 W/m 16,1 km/h (3 Bft) 95,74 %
28.08.2022 14:14 23,2 C 30,0 C 18,3 C 55 % 1020,7 hPa 0,0 l/m 2 min 0 min 802 W/m 16,1 km/h (3 Bft) 97,83 %
28.08.2022 14:16 23,3 C 30,0 C 18,3 C 55 % 1020,7 hPa 0,0 l/m 2 min 0 min 805 W/m 25,7 km/h (4 Bft) 97,87 %
28.08.2022 14:18 23,3 C 30,6 C 18,3 C 55 % 1020,7 hPa 0,0 l/m 2 min 0 min 802 W/m 16,1 km/h (3 Bft) 97,87 %
28.08.2022 14:20 23,3 C 30,6 C 18,3 C 55 % 1020,6 hPa 0,0 l/m 2 min 0 min 797 W/m 12,9 km/h (3 Bft) 97,87 %
28.08.2022 14:22 23,4 C 31,1 C 18,3 C 55 % 1020,6 hPa 0,0 l/m 2 min 0 min 793 W/m 9,7 km/h (2 Bft) 95,74 %
28.08.2022 14:24 23,6 C 31,7 C 18,3 C 55 % 1020,6 hPa 0,0 l/m 2 min 0 min 797 W/m 12,9 km/h (3 Bft) 97,83 %
28.08.2022 14:26 23,6 C 31,1 C 18,3 C 55 % 1020,5 hPa 0,0 l/m 2 min 0 min 809 W/m 12,9 km/h (3 Bft) 100,00 %
28.08.2022 14:28 23,7 C 30,6 C 18,9 C 54 % 1020,4 hPa 0,0 l/m 2 min 0 min 824 W/m 22,5 km/h (4 Bft) 100,00 %
28.08.2022 14:30 23,8 C 31,7 C 18,9 C 54 % 1020,5 hPa 0,0 l/m 2 min 0 min 809 W/m 19,3 km/h (3 Bft) 100,00 %
28.08.2022 14:32 23,8 C 31,1 C 18,9 C 53 % 1020,6 hPa 0,0 l/m 2 min 0 min 791 W/m 12,9 km/h (3 Bft) 100,00 %
28.08.2022 14:34 23,9 C 31,7 C 18,9 C 53 % 1020,5 hPa 0,0 l/m 2 min 0 min 787 W/m 12,9 km/h (3 Bft) 97,87 %
28.08.2022 14:36 24,1 C 32,2 C 18,9 C 53 % 1020,5 hPa 0,0 l/m 2 min 0 min 790 W/m 6,4 km/h (2 Bft) 100,00 %
28.08.2022 14:38 24,1 C 30,6 C 18,9 C 52 % 1020,5 hPa 0,0 l/m 2 min 0 min 787 W/m 12,9 km/h (3 Bft) 100,00 %
28.08.2022 14:40 24,1 C 30,0 C 18,9 C 52 % 1020,5 hPa 0,0 l/m 2 min 0 min 782 W/m 16,1 km/h (3 Bft) 100,00 %
28.08.2022 14:42 24,1 C 30,0 C 18,9 C 53 % 1020,4 hPa 0,0 l/m 2 min 0 min 781 W/m 19,3 km/h (3 Bft) 100,00 %
28.08.2022 14:44 24,1 C 28,9 C 18,9 C 53 % 1020,5 hPa 0,0 l/m 2 min 0 min 784 W/m 19,3 km/h (3 Bft) 97,87 %
28.08.2022 14:46 24,0 C 27,8 C 18,3 C 53 % 1020,4 hPa 0,0 l/m 2 min 0 min 777 W/m 25,7 km/h (4 Bft) 100,00 %
28.08.2022 14:48 23,9 C 27,8 C 18,3 C 53 % 1020,4 hPa 0,0 l/m 2 min 0 min 772 W/m 19,3 km/h (3 Bft) 100,00 %
28.08.2022 14:50 23,9 C 29,4 C 18,9 C 53 % 1020,5 hPa 0,0 l/m 2 min 0 min 772 W/m 9,7 km/h (2 Bft) 100,00 %
28.08.2022 14:52 24,0 C 29,4 C 18,9 C 54 % 1020,4 hPa 0,0 l/m 2 min 0 min 771 W/m 9,7 km/h (2 Bft) 97,83 %
28.08.2022 14:54 24,1 C 30,6 C 18,9 C 53 % 1020,5 hPa 0,0 l/m 2 min 0 min 770 W/m 9,7 km/h (2 Bft) 97,87 %
28.08.2022 14:56 24,1 C 29,4 C 18,9 C 53 % 1020,5 hPa 0,0 l/m 2 min 0 min 770 W/m 29,0 km/h (5 Bft) 97,87 %
28.08.2022 14:58 23,9 C 29,4 C 18,9 C 53 % 1020,4 hPa 0,0 l/m 2 min 0 min 767 W/m 16,1 km/h (3 Bft) 95,74 %
28.08.2022 15:00 23,9 C 29,4 C 18,9 C 53 % 1020,4 hPa 0,0 l/m 2 min 0 min 768 W/m 16,1 km/h (3 Bft) 97,87 %
28.08.2022 15:02 23,9 C 28,9 C 18,9 C 53 % 1020,4 hPa 0,0 l/m 2 min 0 min 765 W/m 16,1 km/h (3 Bft) 97,87 %
28.08.2022 15:04 24,0 C 28,9 C 18,9 C 53 % 1020,4 hPa 0,0 l/m 2 min 0 min 757 W/m 16,1 km/h (3 Bft) 97,83 %
28.08.2022 15:06 24,1 C 30,0 C 18,9 C 52 % 1020,3 hPa 0,0 l/m 2 min 0 min 755 W/m 12,9 km/h (3 Bft) 98,31 %
28.08.2022 15:08 24,1 C 29,4 C 18,9 C 52 % 1020,3 hPa 0,0 l/m 2 min 0 min 755 W/m 19,3 km/h (3 Bft) 97,14 %
28.08.2022 15:10 24,2 C 30,0 C 18,9 C 53 % 1020,3 hPa 0,0 l/m 2 min 0 min 754 W/m 12,9 km/h (3 Bft) 97,87 %
28.08.2022 15:12 24,2 C 29,4 C 18,9 C 52 % 1020,3 hPa 0,0 l/m 2 min 0 min 752 W/m 9,7 km/h (2 Bft) 97,87 %
28.08.2022 15:14 24,3 C 28,9 C 18,9 C 53 % 1020,3 hPa 0,0 l/m 2 min 0 min 756 W/m 9,7 km/h (2 Bft) 97,87 %
28.08.2022 15:16 24,3 C 27,8 C 18,9 C 52 % 1020,2 hPa 0,0 l/m 2 min 0 min 759 W/m 19,3 km/h (3 Bft) 97,83 %
28.08.2022 15:18 24,3 C 26,7 C 18,9 C 52 % 1020,3 hPa 0,0 l/m 2 min 0 min 775 W/m 16,1 km/h (3 Bft) 97,87 %
28.08.2022 15:20 24,2 C 26,1 C 18,9 C 52 % 1020,3 hPa 0,0 l/m 2 min 0 min 777 W/m 12,9 km/h (3 Bft) 97,87 %
28.08.2022 15:22 24,1 C 26,7 C 18,9 C 52 % 1020,3 hPa 0,0 l/m 2 min 0 min 777 W/m 16,1 km/h (3 Bft) 95,74 %
28.08.2022 15:24 24,1 C 27,8 C 18,9 C 52 % 1020,3 hPa 0,0 l/m 2 min 0 min 757 W/m 12,9 km/h (3 Bft) 97,87 %
28.08.2022 15:26 24,1 C 28,3 C 18,9 C 51 % 1020,3 hPa 0,0 l/m 2 min 0 min 731 W/m 16,1 km/h (3 Bft) 97,87 %
28.08.2022 15:28 24,2 C 28,3 C 18,9 C 51 % 1020,2 hPa 0,0 l/m 2 min 0 min 728 W/m 12,9 km/h (3 Bft) 97,83 %
28.08.2022 15:30 24,2 C 28,3 C 18,9 C 52 % 1020,3 hPa 0,0 l/m 2 min 0 min 726 W/m 12,9 km/h (3 Bft) 97,87 %
28.08.2022 15:32 24,2 C 29,4 C 18,9 C 52 % 1020,3 hPa 0,0 l/m 2 min 0 min 722 W/m 12,9 km/h (3 Bft) 97,87 %
28.08.2022 15:34 24,3 C 30,0 C 18,9 C 52 % 1020,3 hPa 0,0 l/m 2 min 0 min 720 W/m 9,7 km/h (2 Bft) 95,74 %
28.08.2022 15:36 24,4 C 29,4 C 18,9 C 51 % 1020,3 hPa 0,0 l/m 2 min 0 min 713 W/m 19,3 km/h (3 Bft) 96,55 %
28.08.2022 15:38 24,4 C 29,4 C 18,9 C 51 % 1020,2 hPa 0,0 l/m 2 min 0 min 709 W/m 19,3 km/h (3 Bft) 94,44 %
28.08.2022 15:40 24,4 C 28,9 C 18,9 C 51 % 1020,2 hPa 0,0 l/m 2 min 0 min 703 W/m 16,1 km/h (3 Bft) 93,48 %
28.08.2022 15:42 24,3 C 28,3 C 18,9 C 50 % 1020,3 hPa 0,0 l/m 2 min 0 min 701 W/m 16,1 km/h (3 Bft) 95,74 %
28.08.2022 15:44 24,3 C 28,9 C 18,9 C 51 % 1020,3 hPa 0,0 l/m 2 min 0 min 696 W/m 12,9 km/h (3 Bft) 97,87 %
28.08.2022 15:46 24,2 C 27,8 C 18,9 C 51 % 1020,3 hPa 0,0 l/m 2 min 0 min 687 W/m 16,1 km/h (3 Bft) 95,74 %
28.08.2022 15:48 24,2 C 27,2 C 18,9 C 51 % 1020,3 hPa 0,0 l/m 2 min 0 min 692 W/m 22,5 km/h (4 Bft) 95,74 %
28.08.2022 15:50 24,1 C 26,7 C 18,9 C 51 % 1020,2 hPa 0,0 l/m 2 min 0 min 690 W/m 19,3 km/h (3 Bft) 97,87 %
28.08.2022 15:52 24,1 C 26,7 C 18,9 C 51 % 1020,1 hPa 0,0 l/m 2 min 0 min 687 W/m 9,7 km/h (2 Bft) 95,65 %
28.08.2022 15:54 24,2 C 26,1 C 18,9 C 51 % 1020,1 hPa 0,0 l/m 2 min 0 min 683 W/m 19,3 km/h (3 Bft) 97,87 %
28.08.2022 15:56 24,2 C 26,1 C 18,9 C 50 % 1020,1 hPa 0,0 l/m 2 min 0 min 674 W/m 22,5 km/h (4 Bft) 97,87 %
28.08.2022 15:58 24,2 C 27,2 C 18,9 C 52 % 1020,1 hPa 0,0 l/m 2 min 0 min 668 W/m 16,1 km/h (3 Bft) 95,74 %
28.08.2022 16:00 24,3 C 26,7 C 19,4 C 51 % 1020,0 hPa 0,0 l/m 2 min 0 min 669 W/m 16,1 km/h (3 Bft) 95,74 %
28.08.2022 16:02 24,3 C 26,7 C 19,4 C 51 % 1020,1 hPa 0,0 l/m 2 min 0 min 667 W/m 16,1 km/h (3 Bft) 97,87 %
28.08.2022 16:04 24,4 C 26,1 C 19,4 C 50 % 1020,0 hPa 0,0 l/m 2 min 0 min 660 W/m 32,2 km/h (5 Bft) 97,83 %
28.08.2022 16:06 24,4 C 27,2 C 19,4 C 50 % 1020,0 hPa 0,0 l/m 2 min 0 min 655 W/m 12,9 km/h (3 Bft) 98,31 %
28.08.2022 16:08 24,4 C 26,7 C 19,4 C 50 % 1020,0 hPa 0,0 l/m 2 min 0 min 650 W/m 22,5 km/h (4 Bft) 100,00 %
28.08.2022 16:10 24,4 C 26,7 C 19,4 C 51 % 1020,0 hPa 0,0 l/m 2 min 0 min 647 W/m 16,1 km/h (3 Bft) 97,87 %
28.08.2022 16:12 24,5 C 26,7 C 19,4 C 50 % 1020,0 hPa 0,0 l/m 2 min 0 min 649 W/m 16,1 km/h (3 Bft) 93,62 %
28.08.2022 16:14 24,5 C 26,7 C 19,4 C 50 % 1020,0 hPa 0,0 l/m 2 min 0 min 647 W/m 29,0 km/h (5 Bft) 97,87 %
28.08.2022 16:16 24,5 C 27,2 C 19,4 C 50 % 1020,0 hPa 0,0 l/m 2 min 0 min 644 W/m 16,1 km/h (3 Bft) 97,83 %
28.08.2022 16:18 24,6 C 26,7 C 19,4 C 50 % 1020,0 hPa 0,0 l/m 2 min 0 min 632 W/m 19,3 km/h (3 Bft) 97,87 %
28.08.2022 16:20 24,5 C 25,6 C 19,4 C 49 % 1020,0 hPa 0,0 l/m 2 min 0 min 616 W/m 25,7 km/h (4 Bft) 97,87 %
28.08.2022 16:22 24,4 C 26,7 C 19,4 C 50 % 1020,0 hPa 0,0 l/m 2 min 0 min 622 W/m 9,7 km/h (2 Bft) 97,87 %
28.08.2022 16:24 24,4 C 26,1 C 18,9 C 50 % 1019,9 hPa 0,0 l/m 2 min 0 min 619 W/m 19,3 km/h (3 Bft) 95,74 %
28.08.2022 16:26 24,4 C 27,2 C 19,4 C 50 % 1020,0 hPa 0,0 l/m 2 min 0 min 617 W/m 22,5 km/h (4 Bft) 97,87 %
28.08.2022 16:28 24,3 C 26,7 C 19,4 C 50 % 1019,9 hPa 0,0 l/m 2 min 0 min 610 W/m 19,3 km/h (3 Bft) 95,65 %
28.08.2022 16:30 24,3 C 27,2 C 19,4 C 50 % 1019,9 hPa 0,0 l/m 2 min 0 min 607 W/m 12,9 km/h (3 Bft) 95,74 %
28.08.2022 16:32 24,3 C 27,2 C 19,4 C 50 % 1019,9 hPa 0,0 l/m 2 min 0 min 601 W/m 12,9 km/h (3 Bft) 97,87 %
28.08.2022 16:34 24,2 C 27,8 C 19,4 C 50 % 1019,9 hPa 0,0 l/m 2 min 0 min 595 W/m 19,3 km/h (3 Bft) 97,87 %
28.08.2022 16:36 24,3 C 27,8 C 19,4 C 51 % 1019,8 hPa 0,0 l/m 2 min 0 min 594 W/m 16,1 km/h (3 Bft) 97,87 %
28.08.2022 16:38 24,4 C 27,8 C 19,4 C 50 % 1019,8 hPa 0,0 l/m 2 min 0 min 590 W/m 16,1 km/h (3 Bft) 97,87 %
28.08.2022 16:40 24,4 C 27,2 C 19,4 C 49 % 1019,8 hPa 0,0 l/m 2 min 0 min 585 W/m 22,5 km/h (4 Bft) 97,83 %
28.08.2022 16:42 24,4 C 27,2 C 19,4 C 49 % 1019,8 hPa 0,0 l/m 2 min 0 min 579 W/m 12,9 km/h (3 Bft) 97,87 %
28.08.2022 16:44 24,4 C 27,2 C 19,4 C 49 % 1019,9 hPa 0,0 l/m 2 min 0 min 575 W/m 19,3 km/h (3 Bft) 97,87 %
28.08.2022 16:46 24,4 C 27,2 C 19,4 C 50 % 1019,8 hPa 0,0 l/m 2 min 0 min 570 W/m 12,9 km/h (3 Bft) 97,87 %
28.08.2022 16:48 24,4 C 27,2 C 19,4 C 49 % 1019,8 hPa 0,0 l/m 2 min 0 min 567 W/m 12,9 km/h (3 Bft) 95,74 %
28.08.2022 16:50 24,4 C 27,8 C 19,4 C 50 % 1019,9 hPa 0,0 l/m 2 min 0 min 562 W/m 19,3 km/h (3 Bft) 97,83 %
28.08.2022 16:52 24,3 C 27,8 C 19,4 C 49 % 1019,8 hPa 0,0 l/m 2 min 0 min 557 W/m 12,9 km/h (3 Bft) 100,00 %
28.08.2022 16:54 24,4 C 27,8 C 19,4 C 50 % 1019,8 hPa 0,0 l/m 2 min 0 min 549 W/m 16,1 km/h (3 Bft) 97,87 %
28.08.2022 16:56 24,4 C 28,3 C 19,4 C 50 % 1019,8 hPa 0,0 l/m 2 min 0 min 546 W/m 9,7 km/h (2 Bft) 100,00 %
28.08.2022 16:58 24,4 C 28,9 C 19,4 C 50 % 1019,8 hPa 0,0 l/m 2 min 0 min 541 W/m 6,4 km/h (2 Bft) 100,00 %
28.08.2022 17:00 24,5 C 28,9 C 20,0 C 50 % 1019,8 hPa 0,0 l/m 2 min 0 min 535 W/m 9,7 km/h (2 Bft) 100,00 %
28.08.2022 17:02 24,6 C 28,9 C 20,0 C 50 % 1019,8 hPa 0,0 l/m 2 min 0 min 534 W/m 16,1 km/h (3 Bft) 100,00 %
28.08.2022 17:04 24,6 C 28,9 C 20,0 C 50 % 1019,9 hPa 0,0 l/m 2 min 0 min 540 W/m 16,1 km/h (3 Bft) 97,87 %
28.08.2022 17:08 24,6 C 27,8 C 20,0 C 49 % 1019,8 hPa 0,0 l/m 4 min 0 min 520 W/m 6,4 km/h (2 Bft) 97,58 %
28.08.2022 17:13 24,5 C 27,8 C 20,0 C 49 % 1019,9 hPa 0,0 l/m 5 min 0 min 512 W/m 16,1 km/h (3 Bft) 100,00 %
28.08.2022 17:14 24,5 C 27,8 C 20,0 C 49 % 1019,9 hPa 0,0 l/m 1 min 0 min 499 W/m 6,4 km/h (2 Bft) 100,00 %
28.08.2022 17:16 24,5 C 28,3 C 20,0 C 50 % 1019,9 hPa 0,0 l/m 2 min 0 min 494 W/m 16,1 km/h (3 Bft) 100,00 %
28.08.2022 17:18 24,4 C 27,8 C 20,0 C 50 % 1019,9 hPa 0,0 l/m 2 min 0 min 487 W/m 19,3 km/h (3 Bft) 100,00 %
28.08.2022 17:20 24,4 C 28,3 C 20,0 C 50 % 1019,9 hPa 0,0 l/m 2 min 0 min 485 W/m 19,3 km/h (3 Bft) 90,35 %
28.08.2022 17:26 24,4 C 27,2 C 20,0 C 50 % 1019,9 hPa 0,0 l/m 5 min 0 min 461 W/m 12,9 km/h (3 Bft) 100,00 %
28.08.2022 17:28 24,4 C 27,8 C 20,0 C 50 % 1020,0 hPa 0,0 l/m 2 min 0 min 461 W/m 19,3 km/h (3 Bft) 97,87 %
28.08.2022 17:30 24,3 C 27,8 C 20,0 C 50 % 1019,9 hPa 0,0 l/m 2 min 0 min 455 W/m 12,9 km/h (3 Bft) 100,00 %
28.08.2022 17:32 24,3 C 27,8 C 20,0 C 49 % 1019,9 hPa 0,0 l/m 2 min 0 min 451 W/m 12,9 km/h (3 Bft) 97,83 %
28.08.2022 17:34 24,2 C 28,3 C 20,0 C 49 % 1019,8 hPa 0,0 l/m 2 min 0 min 446 W/m 9,7 km/h (2 Bft) 97,87 %
28.08.2022 17:36 24,3 C 28,3 C 20,0 C 50 % 1019,9 hPa 0,0 l/m 2 min 0 min 441 W/m 19,3 km/h (3 Bft) 97,87 %
28.08.2022 17:38 24,3 C 27,8 C 20,0 C 49 % 1019,8 hPa 0,0 l/m 2 min 0 min 440 W/m 16,1 km/h (3 Bft) 95,74 %
28.08.2022 17:40 24,4 C 28,3 C 20,0 C 49 % 1019,7 hPa 0,0 l/m 2 min 0 min 432 W/m 9,7 km/h (2 Bft) 97,87 %
28.08.2022 17:42 24,4 C 27,8 C 20,0 C 48 % 1019,8 hPa 0,0 l/m 2 min 0 min 424 W/m 12,9 km/h (3 Bft) 97,87 %
28.08.2022 17:44 24,4 C 27,8 C 20,0 C 50 % 1019,8 hPa 0,0 l/m 2 min 0 min 416 W/m 19,3 km/h (3 Bft) 97,83 %
28.08.2022 17:46 24,4 C 28,3 C 20,0 C 50 % 1019,7 hPa 0,0 l/m 2 min 0 min 409 W/m 16,1 km/h (3 Bft) 97,87 %
28.08.2022 17:48 24,3 C 27,8 C 20,0 C 51 % 1019,7 hPa 0,0 l/m 2 min 0 min 403 W/m 9,7 km/h (2 Bft) 95,74 %
28.08.2022 17:50 24,4 C 28,3 C 20,0 C 50 % 1019,7 hPa 0,0 l/m 2 min 0 min 398 W/m 16,1 km/h (3 Bft) 97,87 %
28.08.2022 17:52 24,3 C 27,8 C 20,0 C 50 % 1019,7 hPa 0,0 l/m 2 min 0 min 389 W/m 22,5 km/h (4 Bft) 97,87 %
28.08.2022 17:54 24,3 C 27,8 C 20,0 C 50 % 1019,7 hPa 0,0 l/m 2 min 0 min 387 W/m 12,9 km/h (3 Bft) 97,87 %
28.08.2022 17:56 24,2 C 27,2 C 20,0 C 50 % 1019,7 hPa 0,0 l/m 2 min 0 min 384 W/m 19,3 km/h (3 Bft) 97,83 %
28.08.2022 17:58 24,2 C 27,2 C 20,0 C 50 % 1019,7 hPa 0,0 l/m 2 min 0 min 377 W/m 22,5 km/h (4 Bft) 97,87 %
28.08.2022 18:00 24,1 C 27,2 C 20,0 C 50 % 1019,8 hPa 0,0 l/m 2 min 0 min 370 W/m 22,5 km/h (4 Bft) 97,87 %
28.08.2022 18:02 24,1 C 27,2 C 20,0 C 50 % 1019,7 hPa 0,0 l/m 2 min 0 min 367 W/m 9,7 km/h (2 Bft) 94,44 %
28.08.2022 18:04 24,1 C 27,8 C 20,0 C 51 % 1019,7 hPa 0,0 l/m 2 min 0 min 366 W/m 12,9 km/h (3 Bft) 97,83 %
28.08.2022 18:08 24,2 C 28,3 C 20,0 C 50 % 1019,7 hPa 0,0 l/m 4 min 0 min 353 W/m 16,1 km/h (3 Bft) 97,87 %
28.08.2022 18:10 24,2 C 28,9 C 20,0 C 51 % 1019,7 hPa 0,0 l/m 2 min 0 min 339 W/m 12,9 km/h (3 Bft) 97,87 %
28.08.2022 18:12 24,2 C 28,3 C 20,0 C 50 % 1019,7 hPa 0,0 l/m 2 min 0 min 331 W/m 12,9 km/h (3 Bft) 97,87 %
28.08.2022 18:14 24,2 C 28,3 C 20,0 C 50 % 1019,7 hPa 0,0 l/m 2 min 0 min 327 W/m 19,3 km/h (3 Bft) 98,11 %
28.08.2022 18:16 24,2 C 28,3 C 20,0 C 51 % 1019,8 hPa 0,0 l/m 2 min 0 min 321 W/m 22,5 km/h (4 Bft) 97,87 %
28.08.2022 18:18 24,2 C 27,8 C 20,0 C 50 % 1019,7 hPa 0,0 l/m 2 min 0 min 316 W/m 19,3 km/h (3 Bft) 97,87 %
28.08.2022 18:20 24,2 C 27,8 C 20,0 C 50 % 1019,7 hPa 0,0 l/m 2 min 0 min 314 W/m 12,9 km/h (3 Bft) 97,83 %
28.08.2022 18:22 24,2 C 28,3 C 20,0 C 50 % 1019,7 hPa 0,0 l/m 2 min 0 min 308 W/m 12,9 km/h (3 Bft) 95,74 %
28.08.2022 18:24 24,2 C 27,8 C 20,0 C 50 % 1019,7 hPa 0,0 l/m 2 min 0 min 300 W/m 12,9 km/h (3 Bft) 97,87 %
28.08.2022 18:26 24,2 C 28,3 C 20,0 C 50 % 1019,7 hPa 0,0 l/m 2 min 0 min 292 W/m 12,9 km/h (3 Bft) 95,74 %
28.08.2022 18:28 24,3 C 28,3 C 20,0 C 50 % 1019,7 hPa 0,0 l/m 2 min 0 min 283 W/m 6,4 km/h (2 Bft) 97,87 %
28.08.2022 18:30 24,3 C 27,8 C 20,0 C 50 % 1019,7 hPa 0,0 l/m 2 min 0 min 276 W/m 16,1 km/h (3 Bft) 97,87 %
28.08.2022 18:32 24,2 C 27,8 C 19,4 C 49 % 1019,7 hPa 0,0 l/m 2 min 0 min 268 W/m 12,9 km/h (3 Bft) 97,92 %
28.08.2022 18:34 24,2 C 27,8 C 19,4 C 50 % 1019,7 hPa 0,0 l/m 2 min 0 min 262 W/m 6,4 km/h (2 Bft) 95,92 %
28.08.2022 18:36 24,3 C 28,3 C 20,0 C 50 % 1019,7 hPa 0,0 l/m 2 min 0 min 254 W/m 6,4 km/h (2 Bft) 95,74 %
28.08.2022 18:38 24,3 C 27,8 C 20,0 C 50 % 1019,7 hPa 0,0 l/m 2 min 0 min 245 W/m 12,9 km/h (3 Bft) 97,92 %
28.08.2022 18:40 24,2 C 27,2 C 19,4 C 49 % 1019,7 hPa 0,0 l/m 2 min 0 min 238 W/m 19,3 km/h (3 Bft) 95,74 %
28.08.2022 18:42 24,1 C 26,7 C 19,4 C 50 % 1019,7 hPa 0,0 l/m 2 min 0 min 215 W/m 6,4 km/h (2 Bft) 95,74 %
28.08.2022 18:44 24,1 C 25,6 C 19,4 C 50 % 1019,6 hPa 0,0 l/m 2 min 0 min 174 W/m 9,7 km/h (2 Bft) 93,48 %
28.08.2022 18:46 24,0 C 25,0 C 19,4 C 51 % 1019,7 hPa 0,0 l/m 0 min 0 min 50 W/m 6,4 km/h (2 Bft) 95,74 %
28.08.2022 18:48 23,9 C 23,9 C 19,4 C 51 % 1019,7 hPa 0,0 l/m 0 min 0 min 49 W/m 19,3 km/h (3 Bft) 95,74 %
28.08.2022 18:50 23,9 C 23,9 C 19,4 C 51 % 1019,7 hPa 0,0 l/m 0 min 0 min 47 W/m 9,7 km/h (2 Bft) 95,74 %
28.08.2022 18:52 23,8 C 23,3 C 19,4 C 51 % 1019,7 hPa 0,0 l/m 0 min 0 min 46 W/m 16,1 km/h (3 Bft) 95,74 %
28.08.2022 18:54 23,7 C 22,8 C 18,9 C 51 % 1019,7 hPa 0,0 l/m 0 min 0 min 46 W/m 19,3 km/h (3 Bft) 94,29 %
28.08.2022 18:56 23,4 C 22,8 C 18,9 C 51 % 1019,7 hPa 0,0 l/m 0 min 0 min 44 W/m 16,1 km/h (3 Bft) 95,74 %
28.08.2022 18:58 23,3 C 22,8 C 18,9 C 51 % 1019,7 hPa 0,0 l/m 0 min 0 min 44 W/m 16,1 km/h (3 Bft) 95,74 %
28.08.2022 19:00 23,2 C 22,2 C 18,3 C 52 % 1019,6 hPa 0,0 l/m 0 min 0 min 43 W/m 9,7 km/h (2 Bft) 95,74 %
28.08.2022 19:02 23,1 C 22,2 C 18,3 C 52 % 1019,6 hPa 0,0 l/m 0 min 0 min 42 W/m 9,7 km/h (2 Bft) 95,74 %
28.08.2022 19:04 23,0 C 22,2 C 18,3 C 53 % 1019,6 hPa 0,0 l/m 0 min 0 min 42 W/m 12,9 km/h (3 Bft) 91,84 %
28.08.2022 19:06 22,9 C 22,2 C 18,3 C 52 % 1019,7 hPa 0,0 l/m 0 min 0 min 42 W/m 16,1 km/h (3 Bft) 93,22 %
28.08.2022 19:08 22,8 C 22,2 C 18,3 C 53 % 1019,7 hPa 0,0 l/m 0 min 0 min 42 W/m 12,9 km/h (3 Bft) 97,14 %
28.08.2022 19:10 22,7 C 22,2 C 18,3 C 53 % 1019,6 hPa 0,0 l/m 0 min 0 min 41 W/m 9,7 km/h (2 Bft) 97,87 %
28.08.2022 19:12 22,7 C 22,2 C 18,3 C 54 % 1019,7 hPa 0,0 l/m 0 min 0 min 40 W/m 16,1 km/h (3 Bft) 95,74 %
28.08.2022 19:14 22,6 C 21,7 C 17,8 C 53 % 1019,6 hPa 0,0 l/m 0 min 0 min 39 W/m 16,1 km/h (3 Bft) 97,83 %
28.08.2022 19:16 22,5 C 21,7 C 17,8 C 53 % 1019,6 hPa 0,0 l/m 0 min 0 min 39 W/m 19,3 km/h (3 Bft) 97,87 %
28.08.2022 19:18 22,4 C 21,7 C 17,8 C 54 % 1019,7 hPa 0,0 l/m 0 min 0 min 38 W/m 9,7 km/h (2 Bft) 97,87 %
28.08.2022 19:20 22,3 C 21,7 C 17,8 C 54 % 1019,6 hPa 0,0 l/m 0 min 0 min 37 W/m 12,9 km/h (3 Bft) 97,87 %
28.08.2022 19:22 22,3 C 21,1 C 17,8 C 54 % 1019,6 hPa 0,0 l/m 0 min 0 min 35 W/m 12,9 km/h (3 Bft) 95,74 %
28.08.2022 19:24 22,2 C 21,1 C 17,8 C 54 % 1019,7 hPa 0,0 l/m 0 min 0 min 33 W/m 9,7 km/h (2 Bft) 100,00 %
28.08.2022 19:26 22,2 C 21,1 C 17,8 C 54 % 1019,7 hPa 0,0 l/m 0 min 0 min 32 W/m 12,9 km/h (3 Bft) 95,65 %
28.08.2022 19:28 22,1 C 21,1 C 17,8 C 54 % 1019,7 hPa 0,0 l/m 0 min 0 min 30 W/m 12,9 km/h (3 Bft) 100,00 %
28.08.2022 19:30 22,1 C 21,1 C 17,8 C 54 % 1019,7 hPa 0,0 l/m 0 min 0 min 28 W/m 6,4 km/h (2 Bft) 100,00 %
28.08.2022 19:32 22,0 C 21,1 C 17,2 C 55 % 1019,7 hPa 0,0 l/m 0 min 0 min 26 W/m 12,9 km/h (3 Bft) 100,00 %
28.08.2022 19:34 21,9 C 21,1 C 17,2 C 54 % 1019,7 hPa 0,0 l/m 0 min 0 min 25 W/m 12,9 km/h (3 Bft) 97,87 %
28.08.2022 19:36 21,8 C 20,6 C 17,2 C 55 % 1019,7 hPa 0,0 l/m 0 min 0 min 23 W/m 9,7 km/h (2 Bft) 91,49 %
28.08.2022 19:38 21,8 C 20,6 C 17,2 C 55 % 1019,7 hPa 0,0 l/m 0 min 0 min 22 W/m 12,9 km/h (3 Bft) 95,74 %
28.08.2022 19:40 21,7 C 20,6 C 17,2 C 55 % 1019,7 hPa 0,0 l/m 0 min 0 min 21 W/m 9,7 km/h (2 Bft) 95,65 %
28.08.2022 19:42 21,7 C 20,6 C 17,2 C 56 % 1019,7 hPa 0,0 l/m 0 min 0 min 21 W/m 19,3 km/h (3 Bft) 97,87 %
28.08.2022 19:44 21,6 C 20,6 C 17,2 C 55 % 1019,7 hPa 0,0 l/m 0 min 0 min 21 W/m 9,7 km/h (2 Bft) 97,87 %
28.08.2022 19:46 21,6 C 20,6 C 17,2 C 55 % 1019,8 hPa 0,0 l/m 0 min 0 min 19 W/m 12,9 km/h (3 Bft) 97,87 %
28.08.2022 19:48 21,6 C 20,6 C 17,2 C 56 % 1019,8 hPa 0,0 l/m 0 min 0 min 18 W/m 6,4 km/h (2 Bft) 97,87 %
28.08.2022 19:50 21,5 C 20,6 C 17,2 C 56 % 1019,8 hPa 0,0 l/m 0 min 0 min 17 W/m 9,7 km/h (2 Bft) 97,87 %
28.08.2022 19:52 21,4 C 20,6 C 16,7 C 56 % 1019,8 hPa 0,0 l/m 0 min 0 min 16 W/m 9,7 km/h (2 Bft) 95,65 %
28.08.2022 19:54 21,4 C 20,6 C 16,7 C 56 % 1019,8 hPa 0,0 l/m 0 min 0 min 16 W/m 22,5 km/h (4 Bft) 97,87 %
28.08.2022 19:56 21,3 C 20,0 C 16,7 C 56 % 1019,9 hPa 0,0 l/m 0 min 0 min 16 W/m 12,9 km/h (3 Bft) 97,87 %
28.08.2022 19:58 21,3 C 20,0 C 16,7 C 56 % 1019,9 hPa 0,0 l/m 0 min 0 min 16 W/m 12,9 km/h (3 Bft) 97,87 %
28.08.2022 20:00 21,2 C 20,0 C 16,7 C 56 % 1019,9 hPa 0,0 l/m 0 min 0 min 16 W/m 9,7 km/h (2 Bft) 97,87 %
28.08.2022 20:02 21,2 C 20,0 C 16,7 C 56 % 1019,9 hPa 0,0 l/m 0 min 0 min 13 W/m 6,4 km/h (2 Bft) 95,65 %
28.08.2022 20:04 21,1 C 20,0 C 16,7 C 57 % 1019,9 hPa 0,0 l/m 0 min 0 min 12 W/m 19,3 km/h (3 Bft) 97,87 %
28.08.2022 20:06 21,1 C 20,0 C 16,7 C 57 % 1019,9 hPa 0,0 l/m 0 min 0 min 11 W/m 12,9 km/h (3 Bft) 97,87 %
28.08.2022 20:08 21,1 C 20,0 C 16,7 C 57 % 1019,9 hPa 0,0 l/m 0 min 0 min 9 W/m 6,4 km/h (2 Bft) 100,00 %
28.08.2022 20:10 21,0 C 20,0 C 16,7 C 57 % 1019,9 hPa 0,0 l/m 0 min 0 min 8 W/m 9,7 km/h (2 Bft) 100,00 %
28.08.2022 20:12 20,9 C 20,0 C 16,7 C 57 % 1020,0 hPa 0,0 l/m 0 min 0 min 7 W/m 12,9 km/h (3 Bft) 100,00 %
28.08.2022 20:14 20,9 C 20,0 C 16,7 C 57 % 1020,0 hPa 0,0 l/m 0 min 0 min 7 W/m 16,1 km/h (3 Bft) 100,00 %
28.08.2022 20:16 20,8 C 20,0 C 16,1 C 57 % 1020,0 hPa 0,0 l/m 0 min 0 min 5 W/m 6,4 km/h (2 Bft) 100,00 %
28.08.2022 20:18 20,8 C 19,4 C 16,1 C 57 % 1020,0 hPa 0,0 l/m 0 min 0 min 5 W/m 12,9 km/h (3 Bft) 100,00 %
28.08.2022 20:20 20,8 C 19,4 C 16,1 C 57 % 1020,0 hPa 0,0 l/m 0 min 0 min 5 W/m 6,4 km/h (2 Bft) 97,87 %
28.08.2022 20:22 20,7 C 19,4 C 16,1 C 57 % 1019,9 hPa 0,0 l/m 0 min 0 min 5 W/m 12,9 km/h (3 Bft) 98,11 %
28.08.2022 20:24 20,7 C 19,4 C 16,1 C 57 % 1020,0 hPa 0,0 l/m 0 min 0 min 0 W/m 9,7 km/h (2 Bft) 97,92 %
28.08.2022 20:26 20,6 C 19,4 C 16,1 C 57 % 1020,0 hPa 0,0 l/m 0 min 0 min 0 W/m 16,1 km/h (3 Bft) 97,92 %
28.08.2022 20:28 20,6 C 19,4 C 16,1 C 57 % 1020,0 hPa 0,0 l/m 0 min 0 min 0 W/m 6,4 km/h (2 Bft) 100,00 %
28.08.2022 20:30 20,6 C 19,4 C 16,1 C 57 % 1020,0 hPa 0,0 l/m 0 min 0 min 0 W/m 6,4 km/h (2 Bft) 100,00 %
28.08.2022 20:32 20,6 C 19,4 C 16,1 C 57 % 1020,1 hPa 0,0 l/m 0 min 0 min 0 W/m 3,2 km/h (1 Bft) 100,00 %
28.08.2022 20:34 20,5 C 19,4 C 16,1 C 58 % 1020,1 hPa 0,0 l/m 0 min 0 min 0 W/m 9,7 km/h (2 Bft) 100,00 %
28.08.2022 20:36 20,4 C 19,4 C 16,1 C 57 % 1020,2 hPa 0,0 l/m 0 min 0 min 0 W/m 6,4 km/h (2 Bft) 100,00 %
28.08.2022 20:38 20,4 C 19,4 C 16,1 C 57 % 1020,2 hPa 0,0 l/m 0 min 0 min 0 W/m 16,1 km/h (3 Bft) 100,00 %
28.08.2022 20:40 20,4 C 19,4 C 16,1 C 57 % 1020,3 hPa 0,0 l/m 0 min 0 min 0 W/m 16,1 km/h (3 Bft) 100,00 %
28.08.2022 20:42 20,3 C 19,4 C 16,1 C 57 % 1020,2 hPa 0,0 l/m 0 min 0 min 0 W/m 3,2 km/h (1 Bft) 100,00 %
28.08.2022 20:44 20,3 C 18,9 C 15,6 C 58 % 1020,2 hPa 0,0 l/m 0 min 0 min 0 W/m 3,2 km/h (1 Bft) 100,00 %
28.08.2022 20:46 20,3 C 18,9 C 15,6 C 58 % 1020,3 hPa 0,0 l/m 0 min 0 min 0 W/m 9,7 km/h (2 Bft) 100,00 %
28.08.2022 20:48 20,2 C 18,9 C 15,6 C 57 % 1020,3 hPa 0,0 l/m 0 min 0 min 0 W/m 3,2 km/h (1 Bft) 100,00 %
28.08.2022 20:50 20,2 C 18,9 C 15,6 C 58 % 1020,3 hPa 0,0 l/m 0 min 0 min 0 W/m 9,7 km/h (2 Bft) 100,00 %
28.08.2022 20:52 20,2 C 18,9 C 15,6 C 58 % 1020,4 hPa 0,0 l/m 0 min 0 min 0 W/m 9,7 km/h (2 Bft) 97,87 %
28.08.2022 20:54 20,1 C 18,9 C 15,6 C 58 % 1020,4 hPa 0,0 l/m 0 min 0 min 0 W/m 6,4 km/h (2 Bft) 100,00 %
28.08.2022 20:56 20,1 C 18,9 C 15,6 C 58 % 1020,4 hPa 0,0 l/m 0 min 0 min 0 W/m 6,4 km/h (2 Bft) 100,00 %
28.08.2022 20:58 20,1 C 18,9 C 15,6 C 58 % 1020,4 hPa 0,0 l/m 0 min 0 min 0 W/m 3,2 km/h (1 Bft) 100,00 %
28.08.2022 21:00 20,0 C 18,9 C 15,6 C 58 % 1020,4 hPa 0,0 l/m 0 min 0 min 0 W/m 12,9 km/h (3 Bft) 100,00 %
28.08.2022 21:02 20,0 C 18,9 C 15,6 C 58 % 1020,4 hPa 0,0 l/m 0 min 0 min 0 W/m 9,7 km/h (2 Bft) 95,65 %
28.08.2022 21:04 19,9 C 18,9 C 15,6 C 59 % 1020,4 hPa 0,0 l/m 0 min 0 min 0 W/m 6,4 km/h (2 Bft) 100,00 %
28.08.2022 21:06 19,9 C 18,9 C 15,6 C 58 % 1020,4 hPa 0,0 l/m 0 min 0 min 0 W/m 6,4 km/h (2 Bft) 96,61 %
28.08.2022 21:08 19,8 C 18,9 C 15,0 C 59 % 1020,5 hPa 0,0 l/m 0 min 0 min 0 W/m 9,7 km/h (2 Bft) 97,14 %
28.08.2022 21:10 19,8 C 18,9 C 15,0 C 59 % 1020,5 hPa 0,0 l/m 0 min 0 min 0 W/m 6,4 km/h (2 Bft) 97,87 %
28.08.2022 21:12 19,7 C 18,9 C 15,0 C 59 % 1020,5 hPa 0,0 l/m 0 min 0 min 0 W/m 6,4 km/h (2 Bft) 97,87 %
28.08.2022 21:14 19,7 C 18,3 C 15,0 C 59 % 1020,5 hPa 0,0 l/m 0 min 0 min 0 W/m 9,7 km/h (2 Bft) 97,83 %
28.08.2022 21:16 19,7 C 18,3 C 15,0 C 59 % 1020,6 hPa 0,0 l/m 0 min 0 min 0 W/m 6,4 km/h (2 Bft) 97,87 %
28.08.2022 21:18 19,6 C 18,3 C 15,0 C 59 % 1020,6 hPa 0,0 l/m 0 min 0 min 0 W/m 12,9 km/h (3 Bft) 95,74 %
28.08.2022 21:20 19,6 C 18,3 C 15,0 C 59 % 1020,6 hPa 0,0 l/m 0 min 0 min 0 W/m 3,2 km/h (1 Bft) 97,87 %
28.08.2022 21:22 19,6 C 18,3 C 15,0 C 59 % 1020,7 hPa 0,0 l/m 0 min 0 min 0 W/m 9,7 km/h (2 Bft) 95,74 %
28.08.2022 21:24 19,5 C 18,3 C 15,0 C 59 % 1020,6 hPa 0,0 l/m 0 min 0 min 0 W/m 6,4 km/h (2 Bft) 95,74 %
28.08.2022 21:26 19,4 C 18,3 C 15,0 C 59 % 1020,7 hPa 0,0 l/m 0 min 0 min 0 W/m 6,4 km/h (2 Bft) 93,48 %
28.08.2022 21:28 19,4 C 18,3 C 15,0 C 59 % 1020,7 hPa 0,0 l/m 0 min 0 min 0 W/m 12,9 km/h (3 Bft) 93,62 %
28.08.2022 21:30 19,4 C 18,3 C 15,0 C 59 % 1020,7 hPa 0,0 l/m 0 min 0 min 0 W/m 6,4 km/h (2 Bft) 93,62 %
28.08.2022 21:32 19,4 C 18,3 C 15,0 C 59 % 1020,7 hPa 0,0 l/m 0 min 0 min 0 W/m 9,7 km/h (2 Bft) 91,49 %
28.08.2022 21:34 19,4 C 18,3 C 15,0 C 59 % 1020,8 hPa 0,0 l/m 0 min 0 min 0 W/m 6,4 km/h (2 Bft) 93,62 %
28.08.2022 21:36 19,3 C 18,3 C 15,0 C 59 % 1020,8 hPa 0,0 l/m 0 min 0 min 0 W/m 3,2 km/h (1 Bft) 95,74 %
28.08.2022 21:38 19,3 C 18,3 C 15,0 C 59 % 1020,8 hPa 0,0 l/m 0 min 0 min 0 W/m 6,4 km/h (2 Bft) 93,48 %
28.08.2022 21:40 19,2 C 18,3 C 15,0 C 59 % 1020,8 hPa 0,0 l/m 0 min 0 min 0 W/m 12,9 km/h (3 Bft) 93,62 %
28.08.2022 21:42 19,2 C 18,3 C 15,0 C 59 % 1020,8 hPa 0,0 l/m 0 min 0 min 0 W/m 19,3 km/h (3 Bft) 91,49 %
28.08.2022 21:44 19,2 C 18,3 C 15,0 C 59 % 1020,8 hPa 0,0 l/m 0 min 0 min 0 W/m 9,7 km/h (2 Bft) 93,62 %
28.08.2022 21:46 19,2 C 18,3 C 15,0 C 59 % 1020,9 hPa 0,0 l/m 0 min 0 min 0 W/m 9,7 km/h (2 Bft) 93,62 %
28.08.2022 21:48 19,2 C 18,3 C 15,0 C 59 % 1020,9 hPa 0,0 l/m 0 min 0 min 0 W/m 16,1 km/h (3 Bft) 93,62 %
28.08.2022 21:50 19,2 C 18,3 C 15,0 C 60 % 1020,9 hPa 0,0 l/m 0 min 0 min 0 W/m 16,1 km/h (3 Bft) 93,48 %
28.08.2022 21:52 19,1 C 18,3 C 15,0 C 59 % 1020,9 hPa 0,0 l/m 0 min 0 min 0 W/m 6,4 km/h (2 Bft) 89,36 %
28.08.2022 21:54 19,1 C 18,3 C 15,0 C 60 % 1020,9 hPa 0,0 l/m 0 min 0 min 0 W/m 12,9 km/h (3 Bft) 93,62 %
28.08.2022 21:56 19,1 C 18,3 C 14,4 C 60 % 1020,9 hPa 0,0 l/m 0 min 0 min 0 W/m 9,7 km/h (2 Bft) 97,87 %
28.08.2022 21:58 19,1 C 17,8 C 14,4 C 60 % 1020,9 hPa 0,0 l/m 0 min 0 min 0 W/m 6,4 km/h (2 Bft) 95,74 %
28.08.2022 22:00 19,0 C 17,8 C 14,4 C 60 % 1020,9 hPa 0,0 l/m 0 min 0 min 0 W/m 12,9 km/h (3 Bft) 97,87 %
28.08.2022 22:02 19,0 C 17,8 C 14,4 C 60 % 1020,9 hPa 0,0 l/m 0 min 0 min 0 W/m 6,4 km/h (2 Bft) 95,65 %
28.08.2022 22:04 18,9 C 17,8 C 14,4 C 60 % 1020,9 hPa 0,0 l/m 0 min 0 min 0 W/m 22,5 km/h (4 Bft) 98,15 %
28.08.2022 22:06 18,9 C 17,8 C 14,4 C 60 % 1021,0 hPa 0,0 l/m 0 min 0 min 0 W/m 6,4 km/h (2 Bft) 95,65 %
28.08.2022 22:08 18,8 C 17,8 C 14,4 C 61 % 1020,9 hPa 0,0 l/m 0 min 0 min 0 W/m 12,9 km/h (3 Bft) 97,87 %
28.08.2022 22:10 18,8 C 17,8 C 14,4 C 60 % 1021,0 hPa 0,0 l/m 0 min 0 min 0 W/m 16,1 km/h (3 Bft) 97,87 %
28.08.2022 22:12 18,8 C 17,8 C 14,4 C 61 % 1020,9 hPa 0,0 l/m 0 min 0 min 0 W/m 25,7 km/h (4 Bft) 96,00 %
28.08.2022 22:14 18,8 C 17,8 C 14,4 C 61 % 1021,0 hPa 0,0 l/m 0 min 0 min 0 W/m 16,1 km/h (3 Bft) 100,00 %
28.08.2022 22:16 18,7 C 17,8 C 14,4 C 61 % 1021,0 hPa 0,0 l/m 0 min 0 min 0 W/m 12,9 km/h (3 Bft) 95,74 %
28.08.2022 22:18 18,7 C 17,8 C 14,4 C 61 % 1021,1 hPa 0,0 l/m 0 min 0 min 0 W/m 6,4 km/h (2 Bft) 100,00 %
28.08.2022 22:20 18,7 C 17,8 C 14,4 C 61 % 1021,1 hPa 0,0 l/m 0 min 0 min 0 W/m 9,7 km/h (2 Bft) 100,00 %
28.08.2022 22:22 18,6 C 17,8 C 14,4 C 61 % 1021,1 hPa 0,0 l/m 0 min 0 min 0 W/m 12,9 km/h (3 Bft) 100,00 %
28.08.2022 22:24 18,6 C 17,8 C 14,4 C 62 % 1021,1 hPa 0,0 l/m 0 min 0 min 0 W/m 16,1 km/h (3 Bft) 97,87 %
28.08.2022 22:26 18,6 C 17,2 C 13,9 C 62 % 1021,1 hPa 0,0 l/m 0 min 0 min 0 W/m 9,7 km/h (2 Bft) 95,65 %
28.08.2022 22:28 18,5 C 17,2 C 13,9 C 62 % 1021,2 hPa 0,0 l/m 0 min 0 min 0 W/m 6,4 km/h (2 Bft) 97,87 %
28.08.2022 22:30 18,5 C 17,2 C 13,9 C 62 % 1021,2 hPa 0,0 l/m 0 min 0 min 0 W/m 9,7 km/h (2 Bft) 100,00 %
28.08.2022 22:32 18,4 C 17,2 C 13,9 C 62 % 1021,2 hPa 0,0 l/m 0 min 0 min 0 W/m 9,7 km/h (2 Bft) 100,00 %
28.08.2022 22:34 18,4 C 17,2 C 13,9 C 62 % 1021,2 hPa 0,0 l/m 0 min 0 min 0 W/m 6,4 km/h (2 Bft) 100,00 %
28.08.2022 22:36 18,4 C 17,2 C 13,9 C 63 % 1021,3 hPa 0,0 l/m 0 min 0 min 0 W/m 9,7 km/h (2 Bft) 97,87 %
28.08.2022 22:38 18,3 C 17,2 C 13,9 C 63 % 1021,3 hPa 0,0 l/m 0 min 0 min 0 W/m 6,4 km/h (2 Bft) 97,83 %
28.08.2022 22:40 18,3 C 17,2 C 13,9 C 63 % 1021,3 hPa 0,0 l/m 0 min 0 min 0 W/m 9,7 km/h (2 Bft) 100,00 %
28.08.2022 22:42 18,3 C 17,2 C 13,9 C 63 % 1021,3 hPa 0,0 l/m 0 min 0 min 0 W/m 3,2 km/h (1 Bft) 97,87 %
28.08.2022 22:44 18,3 C 17,2 C 13,9 C 63 % 1021,3 hPa 0,0 l/m 0 min 0 min 0 W/m 6,4 km/h (2 Bft) 100,00 %
28.08.2022 22:46 18,2 C 17,2 C 13,9 C 63 % 1021,3 hPa 0,0 l/m 0 min 0 min 0 W/m 6,4 km/h (2 Bft) 100,00 %
28.08.2022 22:48 18,2 C 17,2 C 13,9 C 64 % 1021,4 hPa 0,0 l/m 0 min 0 min 0 W/m 6,4 km/h (2 Bft) 100,00 %
28.08.2022 22:50 18,1 C 16,7 C 13,9 C 64 % 1021,4 hPa 0,0 l/m 0 min 0 min 0 W/m 3,2 km/h (1 Bft) 100,00 %
28.08.2022 22:52 18,1 C 16,7 C 13,9 C 65 % 1021,3 hPa 0,0 l/m 0 min 0 min 0 W/m 9,7 km/h (2 Bft) 100,00 %
28.08.2022 22:54 18,1 C 16,7 C 13,3 C 64 % 1021,3 hPa 0,0 l/m 0 min 0 min 0 W/m 9,7 km/h (2 Bft) 100,00 %
28.08.2022 22:56 18,0 C 16,7 C 13,3 C 65 % 1021,4 hPa 0,0 l/m 0 min 0 min 0 W/m 6,4 km/h (2 Bft) 100,00 %
28.08.2022 22:58 17,9 C 16,7 C 13,3 C 65 % 1021,4 hPa 0,0 l/m 0 min 0 min 0 W/m 3,2 km/h (1 Bft) 100,00 %
28.08.2022 23:00 17,9 C 16,7 C 13,3 C 65 % 1021,4 hPa 0,0 l/m 0 min 0 min 0 W/m 3,2 km/h (1 Bft) 100,00 %
28.08.2022 23:02 17,9 C 16,7 C 13,3 C 65 % 1021,5 hPa 0,0 l/m 0 min 0 min 0 W/m 6,4 km/h (2 Bft) 100,00 %
28.08.2022 23:04 17,8 C 16,7 C 13,3 C 66 % 1021,4 hPa 0,0 l/m 0 min 0 min 0 W/m 6,4 km/h (2 Bft) 100,00 %
28.08.2022 23:06 17,8 C 16,7 C 13,3 C 66 % 1021,4 hPa 0,0 l/m 0 min 0 min 0 W/m 6,4 km/h (2 Bft) 100,00 %
28.08.2022 23:08 17,8 C 16,7 C 13,3 C 66 % 1021,5 hPa 0,0 l/m 0 min 0 min 0 W/m 9,7 km/h (2 Bft) 100,00 %
28.08.2022 23:10 17,7 C 16,7 C 13,3 C 66 % 1021,5 hPa 0,0 l/m 0 min 0 min 0 W/m 6,4 km/h (2 Bft) 100,00 %
28.08.2022 23:12 17,7 C 16,7 C 13,3 C 67 % 1021,5 hPa 0,0 l/m 0 min 0 min 0 W/m 6,4 km/h (2 Bft) 100,00 %
28.08.2022 23:14 17,7 C 16,7 C 13,3 C 66 % 1021,5 hPa 0,0 l/m 0 min 0 min 0 W/m 3,2 km/h (1 Bft) 100,00 %
28.08.2022 23:16 17,7 C 16,7 C 13,3 C 67 % 1021,5 hPa 0,0 l/m 0 min 0 min 0 W/m 6,4 km/h (2 Bft) 100,00 %
28.08.2022 23:18 17,6 C 16,7 C 13,3 C 67 % 1021,6 hPa 0,0 l/m 0 min 0 min 0 W/m 9,7 km/h (2 Bft) 95,74 %
28.08.2022 23:20 17,6 C 16,7 C 13,3 C 67 % 1021,6 hPa 0,0 l/m 0 min 0 min 0 W/m 9,7 km/h (2 Bft) 97,87 %
28.08.2022 23:22 17,6 C 16,7 C 13,3 C 67 % 1021,6 hPa 0,0 l/m 0 min 0 min 0 W/m 3,2 km/h (1 Bft) 100,00 %
28.08.2022 23:24 17,6 C 16,7 C 13,3 C 68 % 1021,6 hPa 0,0 l/m 0 min 0 min 0 W/m 12,9 km/h (3 Bft) 96,61 %
28.08.2022 23:26 17,5 C 16,7 C 13,3 C 68 % 1021,7 hPa 0,0 l/m 0 min 0 min 0 W/m 9,7 km/h (2 Bft) 97,83 %
28.08.2022 23:28 17,5 C 16,7 C 13,3 C 68 % 1021,7 hPa 0,0 l/m 0 min 0 min 0 W/m 6,4 km/h (2 Bft) 95,74 %
28.08.2022 23:30 17,4 C 16,7 C 13,3 C 69 % 1021,7 hPa 0,0 l/m 0 min 0 min 0 W/m 12,9 km/h (3 Bft) 95,74 %
28.08.2022 23:32 17,4 C 16,7 C 13,3 C 69 % 1021,7 hPa 0,0 l/m 0 min 0 min 0 W/m 6,4 km/h (2 Bft) 95,74 %
28.08.2022 23:34 17,4 C 16,7 C 13,3 C 70 % 1021,7 hPa 0,0 l/m 0 min 0 min 0 W/m 6,4 km/h (2 Bft) 97,87 %
28.08.2022 23:36 17,4 C 16,1 C 13,3 C 69 % 1021,7 hPa 0,0 l/m 0 min 0 min 0 W/m 12,9 km/h (3 Bft) 96,15 %
28.08.2022 23:38 17,4 C 16,7 C 12,8 C 70 % 1021,7 hPa 0,0 l/m 0 min 0 min 0 W/m 12,9 km/h (3 Bft) 95,12 %
28.08.2022 23:40 17,4 C 16,7 C 13,3 C 70 % 1021,8 hPa 0,0 l/m 0 min 0 min 0 W/m 12,9 km/h (3 Bft) 93,62 %
28.08.2022 23:42 17,3 C 16,7 C 12,8 C 70 % 1021,7 hPa 0,0 l/m 0 min 0 min 0 W/m 6,4 km/h (2 Bft) 95,74 %
28.08.2022 23:44 17,3 C 16,1 C 12,8 C 71 % 1021,7 hPa 0,0 l/m 0 min 0 min 0 W/m 6,4 km/h (2 Bft) 95,74 %
28.08.2022 23:46 17,3 C 16,1 C 12,8 C 71 % 1021,8 hPa 0,0 l/m 0 min 0 min 0 W/m 6,4 km/h (2 Bft) 95,74 %
28.08.2022 23:48 17,3 C 16,1 C 12,8 C 71 % 1021,8 hPa 0,0 l/m 0 min 0 min 0 W/m 12,9 km/h (3 Bft) 97,87 %
28.08.2022 23:50 17,3 C 16,1 C 12,8 C 71 % 1021,8 hPa 0,0 l/m 0 min 0 min 0 W/m 6,4 km/h (2 Bft) 97,83 %
28.08.2022 23:52 17,3 C 16,1 C 12,8 C 71 % 1021,8 hPa 0,0 l/m 0 min 0 min 0 W/m 12,9 km/h (3 Bft) 95,74 %
28.08.2022 23:54 17,2 C 16,1 C 12,8 C 71 % 1021,8 hPa 0,0 l/m 0 min 0 min 0 W/m 6,4 km/h (2 Bft) 97,87 %
28.08.2022 23:56 17,2 C 16,1 C 12,8 C 71 % 1021,7 hPa 0,0 l/m 0 min 0 min 0 W/m 16,1 km/h (3 Bft) 97,87 %
28.08.2022 23:58 17,2 C 16,1 C 12,8 C 71 % 1021,8 hPa 0,0 l/m 0 min 0 min 0 W/m 6,4 km/h (2 Bft) 98,15 %
_ Min-Zeit 06:20 05:52 05:58 17:42 00:00 - - - - 00:00 07:30
Minimum _ 15,9 C 15,0 C 11,7 C 48 % 1018,0 hPa - - - - 3,2 km/h (1 Bft) 46,34 %
_ Max-Zeit 16:18 14:36 12:04 07:26 23:40 00:00 12:10 00:00 13:44 16:04 00:48
Maximum _ 24,6 C 32,2 C 20,6 C 82 % 1021,8 hPa 0,0 l/m 5 min 0 min 843 W/m 32,2 km/h
W-SW (5 Bft)
100,00 %
Durchschnitt _ 19,8 C 20,5 C 15,5 C 66 % 1019,9 hPa #0,0 l/m #8:18 h #0 min. 403 W/m 11,6 km/h (2 Bft) 97,57 %
© 2022 W. Hausmann